| time (UTC) | temp F | wind direction | speed knots | gust knots | rain 1hr in | rain 24hr in | rain mn in | humidity % | barometer mb |
| 20260507003528 | 83 | 148 | 1.7 | 6.1 | 0.00 | 0.00 | 0.00 | 76 | 1009.7 |
| 20260507003414 | 83 | 137 | 0.9 | 6.1 | 0.00 | 0.00 | 0.00 | 76 | 1009.7 |
| 20260507003328 | 83 | 130 | 0.9 | 6.1 | 0.00 | 0.00 | 0.00 | 76 | 1009.7 |
| 20260507003219 | 83 | 128 | 0.9 | 6.1 | 0.00 | 0.00 | 0.00 | 76 | 1009.6 |
| 20260507003142 | 83 | 128 | 0.9 | 6.1 | 0.00 | 0.00 | 0.00 | 76 | 1009.6 |
| 20260507003017 | 83 | 127 | 1.7 | 6.1 | 0.00 | 0.00 | 0.00 | 76 | 1009.7 |
| 20260507002943 | 83 | 123 | 1.7 | 6.1 | 0.00 | 0.00 | 0.00 | 76 | 1009.7 |
| 20260507002835 | 83 | 131 | 0.9 | 6.1 | 0.00 | 0.00 | 0.00 | 76 | 1009.6 |
| 20260507002720 | 83 | 131 | 0.0 | 3.5 | 0.00 | 0.00 | 0.00 | 75 | 1009.6 |
| 20260507002643 | 83 | 129 | 0.0 | 3.5 | 0.00 | 0.00 | 0.00 | 75 | 1009.6 |
| 20260507002523 | 83 | 128 | 0.9 | 3.5 | 0.00 | 0.00 | 0.00 | 75 | 1009.6 |
| 20260507002430 | 83 | 128 | 0.9 | 5.2 | 0.00 | 0.00 | 0.00 | 75 | 1009.6 |
| 20260507002342 | 83 | 142 | 0.9 | 5.2 | 0.00 | 0.00 | 0.00 | 75 | 1009.6 |
| 20260507002218 | 83 | 141 | 0.9 | 5.2 | 0.00 | 0.00 | 0.00 | 75 | 1009.7 |
| 20260507002151 | 83 | 132 | 0.9 | 5.2 | 0.00 | 0.00 | 0.00 | 75 | 1009.7 |
| 20260507002025 | 83 | 132 | 0.9 | 5.2 | 0.00 | 0.00 | 0.00 | 75 | 1009.7 |
| 20260507001915 | 83 | 131 | 0.9 | 5.2 | 0.00 | 0.00 | 0.00 | 75 | 1009.7 |
| 20260507001821 | 83 | 131 | 1.7 | 5.2 | 0.00 | 0.00 | 0.00 | 75 | 1009.7 |
| 20260507001724 | 83 | 130 | 1.7 | 5.2 | 0.00 | 0.00 | 0.00 | 75 | 1009.7 |
| 20260507001658 | 83 | 123 | 1.7 | 5.2 | 0.00 | 0.00 | 0.00 | 75 | 1009.6 |
| 20260507001531 | 83 | 131 | 0.9 | 4.3 | 0.00 | 0.00 | 0.00 | 75 | 1009.7 |
| 20260507001417 | 83 | 175 | 1.7 | 4.3 | 0.00 | 0.00 | 0.00 | 75 | 1009.6 |
| 20260507001329 | 83 | 188 | 1.7 | 4.3 | 0.00 | 0.00 | 0.00 | 75 | 1009.6 |
| 20260507001214 | 83 | 142 | 0.9 | 5.2 | 0.00 | 0.00 | 0.00 | 75 | 1009.5 |
| 20260507001136 | 83 | 142 | 0.9 | 5.2 | 0.00 | 0.00 | 0.00 | 75 | 1009.5 |
| 20260507001059 | 83 | 142 | 0.9 | 6.1 | 0.00 | 0.00 | 0.00 | 75 | 1009.5 |
| 20260507000924 | 83 | 140 | 0.9 | 7.8 | 0.00 | 0.00 | 0.00 | 75 | 1009.5 |
| 20260507000815 | 83 | 130 | 0.0 | 7.8 | 0.00 | 0.00 | 0.00 | 75 | 1009.5 |
| 20260507000722 | 84 | 128 | 0.9 | 7.8 | 0.00 | 0.00 | 0.00 | 75 | 1009.5 |
| 20260507000704 | 83 | 134 | 0.9 | 7.8 | 0.00 | 0.00 | 0.00 | 75 | 1009.5 |
| 20260507000539 | 84 | 132 | 1.7 | 7.8 | 0.00 | 0.00 | 0.00 | 75 | 1009.5 |
| 20260507000430 | 84 | 128 | 1.7 | 7.8 | 0.00 | 0.00 | 0.00 | 75 | 1009.5 |
| 20260507000315 | 84 | 123 | 2.6 | 7.8 | 0.00 | 0.00 | 0.00 | 74 | 1009.4 |
| 20260507000219 | 84 | 127 | 3.5 | 7.8 | 0.00 | 0.00 | 0.00 | 74 | 1009.4 |
| 20260507000127 | 84 | 137 | 2.6 | 7.8 | 0.00 | 0.00 | 0.00 | 74 | 1009.4 |
| 20260507000024 | 84 | 130 | 1.7 | 7.0 | 0.00 | 0.00 | 0.00 | 74 | 1009.4 |
| 20260506235930 | 84 | 128 | 2.6 | 7.0 | 0.00 | 0.00 | 0.00 | 74 | 1009.4 |
| 20260506235818 | 84 | 120 | 2.6 | 7.0 | 0.00 | 0.00 | 0.00 | 74 | 1009.4 |
| 20260506235742 | 84 | 184 | 2.6 | 6.1 | 0.00 | 0.00 | 0.00 | 74 | 1009.4 |
| 20260506235636 | 84 | 135 | 2.6 | 6.1 | 0.00 | 0.00 | 0.00 | 74 | 1009.4 |
| 20260506235531 | 84 | 132 | 2.6 | 6.1 | 0.00 | 0.00 | 0.00 | 74 | 1009.3 |
| 20260506235415 | 84 | 134 | 2.6 | 6.1 | 0.00 | 0.00 | 0.00 | 74 | 1009.2 |
| 20260506235347 | 84 | 117 | 1.7 | 6.1 | 0.00 | 0.00 | 0.00 | 74 | 1009.2 |
| 20260506235222 | 84 | 146 | 1.7 | 6.1 | 0.00 | 0.00 | 0.00 | 74 | 1009.3 |
| 20260506235155 | 84 | 130 | 1.7 | 6.1 | 0.00 | 0.00 | 0.00 | 74 | 1009.3 |
| 20260506235030 | 84 | 131 | 1.7 | 6.1 | 0.00 | 0.00 | 0.00 | 74 | 1009.3 |
| 20260506234919 | 84 | 131 | 0.9 | 7.8 | 0.00 | 0.00 | 0.00 | 74 | 1009.3 |
| 20260506234852 | 84 | 126 | 0.9 | 7.8 | 0.00 | 0.00 | 0.00 | 74 | 1009.3 |
| 20260506234719 | 84 | 158 | 0.9 | 7.8 | 0.00 | 0.00 | 0.00 | 74 | 1009.3 |
| 20260506234703 | 84 | 156 | 0.0 | 7.8 | 0.00 | 0.00 | 0.00 | 74 | 1009.3 |
| 20260506234518 | 84 | 156 | 0.0 | 7.8 | 0.00 | 0.00 | 0.00 | 74 | 1009.4 |
| 20260506234423 | 84 | 156 | 0.0 | 7.8 | 0.00 | 0.00 | 0.00 | 74 | 1009.3 |
| 20260506234340 | 84 | 156 | 0.9 | 7.8 | 0.00 | 0.00 | 0.00 | 74 | 1009.3 |
| 20260506234215 | 84 | 136 | 2.6 | 7.8 | 0.00 | 0.00 | 0.00 | 74 | 1009.3 |
| 20260506234143 | 84 | 167 | 2.6 | 7.8 | 0.00 | 0.00 | 0.00 | 74 | 1009.3 |
| 20260506234017 | 84 | 121 | 0.9 | 7.8 | 0.00 | 0.00 | 0.00 | 74 | 1009.3 |
| 20260506233930 | 84 | 130 | 0.9 | 7.8 | 0.00 | 0.00 | 0.00 | 74 | 1009.2 |
| 20260506233821 | 84 | 131 | 1.7 | 7.8 | 0.00 | 0.00 | 0.00 | 74 | 1009.2 |
| 20260506233719 | 84 | 130 | 1.7 | 7.8 | 0.00 | 0.00 | 0.00 | 74 | 1009.1 |
| 20260506233631 | 84 | 142 | 0.9 | 7.8 | 0.00 | 0.00 | 0.00 | 74 | 1009.2 |
| 20260506233526 | 84 | 146 | 1.7 | 7.8 | 0.00 | 0.00 | 0.00 | 74 | 1009.1 |
| 20260506233433 | 84 | 164 | 2.6 | 7.8 | 0.00 | 0.00 | 0.00 | 74 | 1009.2 |
| 20260506233345 | 84 | 199 | 2.6 | 7.8 | 0.00 | 0.00 | 0.00 | 73 | 1009.1 |
| 20260506233213 | 84 | 154 | 1.7 | 6.1 | 0.00 | 0.00 | 0.00 | 74 | 1009.2 |
| 20260506233130 | 84 | 115 | 0.9 | 6.1 | 0.00 | 0.00 | 0.00 | 74 | 1009.2 |
| 20260506233032 | 84 | 115 | 1.7 | 6.1 | 0.00 | 0.00 | 0.00 | 74 | 1009.2 |
| 20260506232939 | 84 | 115 | 2.6 | 7.0 | 0.00 | 0.00 | 0.00 | 73 | 1009.2 |
| 20260506232829 | 84 | 112 | 2.6 | 7.0 | 0.00 | 0.00 | 0.00 | 73 | 1009.2 |
| 20260506232725 | 84 | 130 | 1.7 | 7.8 | 0.00 | 0.00 | 0.00 | 73 | 1009.2 |
| 20260506232659 | 84 | 146 | 1.7 | 7.8 | 0.00 | 0.00 | 0.00 | 73 | 1009.2 |
| 20260506232515 | 84 | 159 | 2.6 | 7.8 | 0.00 | 0.00 | 0.00 | 73 | 1009.2 |
| 20260506232429 | 84 | 145 | 2.6 | 7.8 | 0.00 | 0.00 | 0.00 | 73 | 1009.2 |
| 20260506232316 | 84 | 191 | 2.6 | 7.8 | 0.00 | 0.00 | 0.00 | 73 | 1009.1 |
| 20260506232242 | 84 | 103 | 2.6 | 7.8 | 0.00 | 0.00 | 0.00 | 73 | 1009.1 |
| 20260506232144 | 84 | 101 | 2.6 | 7.8 | 0.00 | 0.00 | 0.00 | 73 | 1009.1 |
| 20260506232020 | 84 | 179 | 2.6 | 7.8 | 0.00 | 0.00 | 0.00 | 73 | 1009.1 |
| 20260506231937 | 84 | 154 | 2.6 | 7.8 | 0.00 | 0.00 | 0.00 | 73 | 1009.2 |
| 20260506231821 | 84 | 127 | 3.5 | 7.8 | 0.00 | 0.00 | 0.00 | 73 | 1009.2 |
| 20260506231719 | 84 | 125 | 4.3 | 7.8 | 0.00 | 0.00 | 0.00 | 73 | 1009.2 |
| 20260506231653 | 84 | 176 | 3.5 | 7.8 | 0.00 | 0.00 | 0.00 | 73 | 1009.2 |
| 20260506231525 | 84 | 159 | 1.7 | 7.0 | 0.00 | 0.00 | 0.00 | 73 | 1009.2 |
| 20260506231438 | 84 | 131 | 0.9 | 7.0 | 0.00 | 0.00 | 0.00 | 73 | 1009.2 |
| 20260506231327 | 84 | 136 | 1.7 | 7.0 | 0.00 | 0.00 | 0.00 | 73 | 1009.2 |
| 20260506231213 | 84 | 136 | 2.6 | 7.0 | 0.00 | 0.00 | 0.00 | 73 | 1009.2 |
| 20260506231136 | 84 | 168 | 1.7 | 7.0 | 0.00 | 0.00 | 0.00 | 73 | 1009.2 |
| 20260506231031 | 84 | 158 | 1.7 | 7.0 | 0.00 | 0.00 | 0.00 | 72 | 1009.2 |
| 20260506230919 | 84 | 184 | 2.6 | 7.0 | 0.00 | 0.00 | 0.00 | 72 | 1009.2 |
| 20260506230853 | 84 | 183 | 2.6 | 7.0 | 0.00 | 0.00 | 0.00 | 73 | 1009.1 |
| 20260506230721 | 84 | 123 | 2.6 | 7.0 | 0.00 | 0.00 | 0.00 | 72 | 1009.1 |
| 20260506230703 | 84 | 132 | 1.7 | 8.7 | 0.00 | 0.00 | 0.00 | 72 | 1009.1 |
| 20260506230519 | 84 | 128 | 0.9 | 8.7 | 0.00 | 0.00 | 0.00 | 73 | 1009.1 |
| 20260506230427 | 84 | 120 | 0.9 | 8.7 | 0.00 | 0.00 | 0.00 | 73 | 1009.1 |
| 20260506230333 | 84 | 120 | 0.9 | 8.7 | 0.00 | 0.00 | 0.00 | 72 | 1009.1 |
| 20260506230214 | 84 | 142 | 2.6 | 8.7 | 0.00 | 0.00 | 0.00 | 72 | 1009.0 |
| 20260506230127 | 85 | 140 | 3.5 | 8.7 | 0.00 | 0.00 | 0.00 | 72 | 1009.0 |
| 20260506230021 | 85 | 167 | 3.5 | 8.7 | 0.00 | 0.00 | 0.00 | 72 | 1009.0 |
| 20260506225934 | 85 | 126 | 3.5 | 8.7 | 0.00 | 0.00 | 0.00 | 72 | 1009.1 |
| 20260506225819 | 85 | 177 | 3.5 | 8.7 | 0.00 | 0.00 | 0.00 | 72 | 1009.0 |
| 20260506225715 | 85 | 180 | 2.6 | 7.0 | 0.00 | 0.00 | 0.00 | 72 | 1009.0 |
| 20260506225631 | 85 | 137 | 3.5 | 7.0 | 0.00 | 0.00 | 0.00 | 72 | 1009.0 |
| 20260506225526 | 85 | 184 | 2.6 | 7.0 | 0.00 | 0.00 | 0.00 | 72 | 1009.0 |
| 20260506225433 | 85 | 228 | 1.7 | 5.2 | 0.00 | 0.00 | 0.00 | 72 | 1009.1 |
| 20260506225346 | 85 | 148 | 1.7 | 5.2 | 0.00 | 0.00 | 0.00 | 72 | 1009.1 |
| 20260506225221 | 85 | 162 | 1.7 | 7.0 | 0.00 | 0.00 | 0.00 | 72 | 1009.1 |
| 20260506225153 | 85 | 179 | 1.7 | 7.0 | 0.00 | 0.00 | 0.00 | 72 | 1009.1 |
| 20260506225055 | 85 | 152 | 1.7 | 7.0 | 0.00 | 0.00 | 0.00 | 71 | 1009.1 |
| 20260506224924 | 85 | 221 | 0.9 | 8.7 | 0.00 | 0.00 | 0.00 | 72 | 1009.1 |
| 20260506224831 | 85 | 138 | 1.7 | 8.7 | 0.00 | 0.00 | 0.00 | 71 | 1009.1 |
| 20260506224717 | 85 | 167 | 1.7 | 8.7 | 0.00 | 0.00 | 0.00 | 71 | 1009.1 |
| 20260506224641 | 85 | 167 | 2.6 | 8.7 | 0.00 | 0.00 | 0.00 | 71 | 1009.1 |
| 20260506224517 | 85 | 118 | 2.6 | 8.7 | 0.00 | 0.00 | 0.00 | 71 | 1009.1 |
| 20260506224428 | 85 | 136 | 2.6 | 8.7 | 0.00 | 0.00 | 0.00 | 71 | 1009.1 |
| 20260506224314 | 85 | 121 | 2.6 | 8.7 | 0.00 | 0.00 | 0.00 | 71 | 1009.2 |
| 20260506224240 | 85 | 163 | 3.5 | 8.7 | 0.00 | 0.00 | 0.00 | 71 | 1009.2 |
| 20260506224151 | 85 | 165 | 3.5 | 8.7 | 0.00 | 0.00 | 0.00 | 71 | 1009.1 |
| 20260506224026 | 85 | 122 | 2.6 | 7.8 | 0.00 | 0.00 | 0.00 | 71 | 1009.2 |
| 20260506223931 | 85 | 154 | 2.6 | 7.8 | 0.00 | 0.00 | 0.00 | 71 | 1009.2 |
| 20260506223822 | 85 | 96 | 1.7 | 7.8 | 0.00 | 0.00 | 0.00 | 71 | 1009.2 |
| 20260506223718 | 85 | 121 | 0.9 | 7.8 | 0.00 | 0.00 | 0.00 | 71 | 1009.2 |
| 20260506223631 | 85 | 121 | 0.9 | 7.8 | 0.00 | 0.00 | 0.00 | 71 | 1009.2 |
| 20260506223528 | 85 | 120 | 2.6 | 7.8 | 0.00 | 0.00 | 0.00 | 70 | 1009.2 |
| 20260506223414 | 85 | 137 | 3.5 | 7.8 | 0.00 | 0.00 | 0.00 | 71 | 1009.2 |
| 20260506223331 | 85 | 137 | 3.5 | 7.8 | 0.00 | 0.00 | 0.00 | 71 | 1009.2 |
| 20260506223218 | 85 | 148 | 2.6 | 7.8 | 0.00 | 0.00 | 0.00 | 71 | 1009.1 |
| 20260506223202 | 85 | 146 | 1.7 | 7.8 | 0.00 | 0.00 | 0.00 | 71 | 1009.2 |
| 20260506223018 | 85 | 130 | 1.7 | 7.8 | 0.00 | 0.00 | 0.00 | 71 | 1009.2 |
| 20260506222942 | 85 | 128 | 2.6 | 7.8 | 0.00 | 0.00 | 0.00 | 71 | 1009.2 |
| 20260506222834 | 85 | 150 | 2.6 | 7.8 | 0.00 | 0.00 | 0.00 | 71 | 1009.2 |
| 20260506222734 | 85 | 177 | 2.6 | 7.0 | 0.00 | 0.00 | 0.00 | 71 | 1009.2 |
| 20260506222649 | 85 | 166 | 2.6 | 7.8 | 0.00 | 0.00 | 0.00 | 71 | 1009.2 |
| 20260506222523 | 85 | 123 | 2.6 | 6.1 | 0.00 | 0.00 | 0.00 | 71 | 1009.2 |
| 20260506222435 | 85 | 165 | 1.7 | 6.1 | 0.00 | 0.00 | 0.00 | 71 | 1009.3 |
| 20260506222322 | 85 | 190 | 1.7 | 6.1 | 0.00 | 0.00 | 0.00 | 71 | 1009.3 |
| 20260506222239 | 85 | 117 | 1.7 | 3.5 | 0.00 | 0.00 | 0.00 | 71 | 1009.4 |
| 20260506222150 | 85 | 116 | 1.7 | 3.5 | 0.00 | 0.00 | 0.00 | 71 | 1009.3 |
| 20260506222031 | 85 | 160 | 0.9 | 7.0 | 0.00 | 0.00 | 0.00 | 71 | 1009.4 |
| 20260506221921 | 85 | 139 | 0.9 | 7.0 | 0.00 | 0.00 | 0.00 | 70 | 1009.4 |
| 20260506221829 | 85 | 136 | 0.9 | 7.0 | 0.00 | 0.00 | 0.00 | 70 | 1009.4 |
| 20260506221714 | 86 | 135 | 0.9 | 7.0 | 0.00 | 0.00 | 0.00 | 70 | 1009.4 |
| 20260506221658 | 86 | 101 | 0.0 | 7.0 | 0.00 | 0.00 | 0.00 | 70 | 1009.4 |
| 20260506221540 | 86 | 101 | 0.9 | 7.0 | 0.00 | 0.00 | 0.00 | 70 | 1009.4 |
| 20260506221426 | 86 | 101 | 1.7 | 7.0 | 0.00 | 0.00 | 0.00 | 70 | 1009.4 |
| 20260506221318 | 86 | 101 | 2.6 | 7.0 | 0.00 | 0.00 | 0.00 | 69 | 1009.5 |
| 20260506221222 | 86 | 145 | 2.6 | 7.0 | 0.00 | 0.00 | 0.00 | 70 | 1009.4 |
| 20260506221145 | 86 | 125 | 1.7 | 6.1 | 0.00 | 0.00 | 0.00 | 70 | 1009.4 |
| 20260506221021 | 86 | 120 | 1.7 | 5.2 | 0.00 | 0.00 | 0.00 | 70 | 1009.4 |
| 20260506220950 | 86 | 130 | 1.7 | 4.3 | 0.00 | 0.00 | 0.00 | 70 | 1009.4 |
| 20260506220819 | 86 | 130 | 1.7 | 4.3 | 0.00 | 0.00 | 0.00 | 70 | 1009.4 |
| 20260506220724 | 86 | 126 | 1.7 | 6.1 | 0.00 | 0.00 | 0.00 | 70 | 1009.3 |
| 20260506220629 | 86 | 132 | 1.7 | 6.1 | 0.00 | 0.00 | 0.00 | 70 | 1009.4 |
| 20260506220551 | 86 | 138 | 1.7 | 6.1 | 0.00 | 0.00 | 0.00 | 69 | 1009.3 |
| 20260506220438 | 86 | 135 | 1.7 | 6.1 | 0.00 | 0.00 | 0.00 | 70 | 1009.2 |
| 20260506220350 | 86 | 149 | 1.7 | 6.1 | 0.00 | 0.00 | 0.00 | 70 | 1009.3 |
| 20260506220214 | 86 | 161 | 1.7 | 8.7 | 0.00 | 0.00 | 0.00 | 70 | 1009.2 |
| 20260506220142 | 86 | 161 | 1.7 | 8.7 | 0.00 | 0.00 | 0.00 | 70 | 1009.2 |
| 20260506220017 | 86 | 128 | 1.7 | 8.7 | 0.00 | 0.00 | 0.00 | 70 | 1009.4 |
| 20260506215951 | 86 | 127 | 1.7 | 8.7 | 0.00 | 0.00 | 0.00 | 70 | 1009.3 |
| 20260506215836 | 86 | 116 | 1.7 | 8.7 | 0.00 | 0.00 | 0.00 | 70 | 1009.3 |
| 20260506215721 | 86 | 148 | 0.9 | 8.7 | 0.00 | 0.00 | 0.00 | 70 | 1009.3 |
| 20260506215644 | 86 | 148 | 0.9 | 8.7 | 0.00 | 0.00 | 0.00 | 70 | 1009.3 |
| 20260506215543 | 86 | 177 | 0.9 | 8.7 | 0.00 | 0.00 | 0.00 | 70 | 1009.4 |
| 20260506215435 | 86 | 177 | 3.5 | 8.7 | 0.00 | 0.00 | 0.00 | 70 | 1009.3 |
| 20260506215321 | 86 | 163 | 4.3 | 8.7 | 0.00 | 0.00 | 0.00 | 70 | 1009.4 |
| 20260506215239 | 86 | 162 | 2.6 | 7.8 | 0.00 | 0.00 | 0.00 | 70 | 1009.3 |
| 20260506215150 | 86 | 164 | 2.6 | 7.8 | 0.00 | 0.00 | 0.00 | 70 | 1009.3 |
| 20260506215032 | 86 | 123 | 2.6 | 7.8 | 0.00 | 0.00 | 0.00 | 70 | 1009.3 |
| 20260506214923 | 86 | 125 | 2.6 | 7.8 | 0.00 | 0.00 | 0.00 | 70 | 1009.3 |
| 20260506214851 | 86 | 138 | 3.5 | 7.8 | 0.00 | 0.00 | 0.00 | 70 | 1009.3 |
| 20260506214717 | 86 | 158 | 3.5 | 7.8 | 0.00 | 0.00 | 0.00 | 70 | 1009.3 |
| 20260506214640 | 86 | 196 | 2.6 | 7.8 | 0.00 | 0.00 | 0.00 | 70 | 1009.4 |
| 20260506214601 | 86 | 165 | 2.6 | 7.0 | 0.00 | 0.00 | 0.00 | 70 | 1009.4 |
| 20260506214426 | 86 | 143 | 2.6 | 7.0 | 0.00 | 0.00 | 0.00 | 70 | 1009.4 |
| 20260506214315 | 86 | 169 | 0.9 | 7.0 | 0.00 | 0.00 | 0.00 | 71 | 1009.4 |
| 20260506214220 | 86 | 126 | 0.9 | 7.0 | 0.00 | 0.00 | 0.00 | 71 | 1009.4 |
| 20260506214144 | 86 | 126 | 1.7 | 7.0 | 0.00 | 0.00 | 0.00 | 71 | 1009.4 |
| 20260506214019 | 86 | 136 | 1.7 | 7.0 | 0.00 | 0.00 | 0.00 | 71 | 1009.4 |
| 20260506213925 | 86 | 184 | 2.6 | 7.0 | 0.00 | 0.00 | 0.00 | 70 | 1009.5 |
| 20260506213830 | 86 | 200 | 3.5 | 7.0 | 0.00 | 0.00 | 0.00 | 70 | 1009.5 |
| 20260506213728 | 86 | 132 | 3.5 | 7.0 | 0.00 | 0.00 | 0.00 | 70 | 1009.5 |
| 20260506213644 | 86 | 130 | 2.6 | 6.1 | 0.00 | 0.00 | 0.00 | 70 | 1009.4 |
| 20260506213546 | 86 | 129 | 1.7 | 4.3 | 0.00 | 0.00 | 0.00 | 70 | 1009.5 |
| 20260506213452 | 86 | 128 | 1.7 | 7.8 | 0.00 | 0.00 | 0.00 | 70 | 1009.5 |
| 20260506213344 | 86 | 138 | 1.7 | 7.8 | 0.00 | 0.00 | 0.00 | 70 | 1009.5 |
| 20260506213240 | 86 | 136 | 2.6 | 7.8 | 0.00 | 0.00 | 0.00 | 70 | 1009.4 |
| 20260506213152 | 86 | 156 | 2.6 | 7.8 | 0.00 | 0.00 | 0.00 | 70 | 1009.5 |
| 20260506213038 | 86 | 191 | 1.7 | 7.8 | 0.00 | 0.00 | 0.00 | 71 | 1009.5 |
| 20260506212923 | 86 | 140 | 1.7 | 7.8 | 0.00 | 0.00 | 0.00 | 71 | 1009.5 |
| 20260506212829 | 86 | 117 | 1.7 | 7.8 | 0.00 | 0.00 | 0.00 | 71 | 1009.5 |
| 20260506212717 | 86 | 148 | 1.7 | 7.8 | 0.00 | 0.00 | 0.00 | 71 | 1009.5 |
| 20260506212640 | 86 | 146 | 2.6 | 7.8 | 0.00 | 0.00 | 0.00 | 71 | 1009.5 |
| 20260506212514 | 86 | 135 | 2.6 | 7.8 | 0.00 | 0.00 | 0.00 | 71 | 1009.5 |
| 20260506212425 | 86 | 181 | 1.7 | 7.0 | 0.00 | 0.00 | 0.00 | 71 | 1009.5 |
| 20260506212339 | 86 | 160 | 0.9 | 7.0 | 0.00 | 0.00 | 0.00 | 71 | 1009.5 |
| 20260506212225 | 86 | 182 | 0.9 | 7.0 | 0.00 | 0.00 | 0.00 | 71 | 1009.6 |
| 20260506212140 | 86 | 182 | 0.9 | 7.0 | 0.00 | 0.00 | 0.00 | 71 | 1009.5 |
| 20260506212043 | 85 | 118 | 0.9 | 7.0 | 0.00 | 0.00 | 0.00 | 71 | 1009.5 |
| 20260506211928 | 86 | 144 | 0.9 | 7.0 | 0.00 | 0.00 | 0.00 | 71 | 1009.5 |
| 20260506211820 | 86 | 143 | 2.6 | 7.0 | 0.00 | 0.00 | 0.00 | 71 | 1009.5 |
| 20260506211717 | 86 | 150 | 2.6 | 7.0 | 0.00 | 0.00 | 0.00 | 71 | 1009.5 |
| 20260506211628 | 86 | 122 | 2.6 | 7.0 | 0.00 | 0.00 | 0.00 | 71 | 1009.5 |
| 20260506211524 | 86 | 160 | 0.9 | 6.1 | 0.00 | 0.00 | 0.00 | 72 | 1009.6 |
| 20260506211436 | 86 | 141 | 0.9 | 8.7 | 0.00 | 0.00 | 0.00 | 72 | 1009.5 |
| 20260506211326 | 86 | 144 | 0.9 | 8.7 | 0.00 | 0.00 | 0.00 | 71 | 1009.6 |
| 20260506211224 | 86 | 144 | 1.7 | 8.7 | 0.00 | 0.00 | 0.00 | 72 | 1009.6 |
| 20260506211136 | 86 | 139 | 1.7 | 8.7 | 0.00 | 0.00 | 0.00 | 71 | 1009.6 |
| 20260506211032 | 86 | 167 | 1.7 | 8.7 | 0.00 | 0.00 | 0.00 | 71 | 1009.6 |
| 20260506210918 | 86 | 192 | 2.6 | 8.7 | 0.00 | 0.00 | 0.00 | 71 | 1009.6 |
| 20260506210829 | 86 | 150 | 1.7 | 8.7 | 0.00 | 0.00 | 0.00 | 71 | 1009.6 |
| 20260506210714 | 86 | 134 | 2.6 | 8.7 | 0.00 | 0.00 | 0.00 | 71 | 1009.6 |
| 20260506210637 | 86 | 163 | 2.6 | 8.7 | 0.00 | 0.00 | 0.00 | 71 | 1009.6 |
| 20260506210539 | 86 | 140 | 3.5 | 8.7 | 0.00 | 0.00 | 0.00 | 71 | 1009.7 |
| 20260506210444 | 86 | 173 | 2.6 | 5.2 | 0.00 | 0.00 | 0.00 | 71 | 1009.7 |
| 20260506210357 | 86 | 157 | 2.6 | 5.2 | 0.00 | 0.00 | 0.00 | 72 | 1009.7 |
| 20260506210217 | 86 | 171 | 1.7 | 7.8 | 0.00 | 0.00 | 0.00 | 71 | 1009.7 |
| 20260506210150 | 86 | 138 | 1.7 | 9.6 | 0.00 | 0.00 | 0.00 | 71 | 1009.6 |
| 20260506210024 | 86 | 162 | 0.9 | 9.6 | 0.00 | 0.00 | 0.00 | 71 | 1009.7 |
| 20260506205929 | 86 | 159 | 0.9 | 9.6 | 0.00 | 0.00 | 0.00 | 71 | 1009.7 |
| 20260506205814 | 86 | 157 | 0.9 | 9.6 | 0.00 | 0.00 | 0.00 | 71 | 1009.7 |
| 20260506205728 | 86 | 179 | 0.9 | 9.6 | 0.00 | 0.00 | 0.00 | 71 | 1009.7 |
| 20260506205627 | 86 | 176 | 1.7 | 9.6 | 0.00 | 0.00 | 0.00 | 71 | 1009.7 |
| 20260506205530 | 86 | 140 | 2.6 | 9.6 | 0.00 | 0.00 | 0.00 | 71 | 1009.8 |
| 20260506205417 | 86 | 124 | 2.6 | 9.6 | 0.00 | 0.00 | 0.00 | 71 | 1009.7 |
| 20260506205322 | 86 | 146 | 2.6 | 9.6 | 0.00 | 0.00 | 0.00 | 71 | 1009.7 |
| 20260506205234 | 86 | 148 | 2.6 | 9.6 | 0.00 | 0.00 | 0.00 | 71 | 1009.8 |
| 20260506204719 | 86 | 186 | 3.5 | 7.8 | 0.00 | 0.00 | 0.00 | 71 | 1009.9 |
| 20260506204642 | 86 | 174 | 3.5 | 7.8 | 0.00 | 0.00 | 0.00 | 71 | 1009.9 |
| 20260506204521 | 86 | 138 | 2.6 | 7.8 | 0.00 | 0.00 | 0.00 | 71 | 1009.8 |
| 20260506204427 | 86 | 167 | 2.6 | 7.0 | 0.00 | 0.00 | 0.00 | 71 | 1009.9 |
| 20260506204333 | 86 | 120 | 2.6 | 7.0 | 0.00 | 0.00 | 0.00 | 70 | 1009.8 |
| 20260506204219 | 86 | 115 | 1.7 | 7.0 | 0.00 | 0.00 | 0.00 | 70 | 1009.9 |
| 20260506204141 | 86 | 145 | 2.6 | 7.0 | 0.00 | 0.00 | 0.00 | 70 | 1009.9 |
| 20260506204020 | 87 | 150 | 4.3 | 7.0 | 0.00 | 0.00 | 0.00 | 69 | 1009.9 |
| 20260506203953 | 87 | 127 | 3.5 | 7.0 | 0.00 | 0.00 | 0.00 | 70 | 1009.9 |
| 20260506203819 | 87 | 183 | 1.7 | 6.1 | 0.00 | 0.00 | 0.00 | 70 | 1009.9 |
| 20260506203717 | 87 | 166 | 1.7 | 6.1 | 0.00 | 0.00 | 0.00 | 70 | 1009.9 |
| 20260506203628 | 87 | 144 | 1.7 | 6.1 | 0.00 | 0.00 | 0.00 | 69 | 1009.9 |
| 20260506203522 | 87 | 133 | 2.6 | 8.7 | 0.00 | 0.00 | 0.00 | 69 | 1009.9 |
| 20260506203413 | 87 | 130 | 1.7 | 8.7 | 0.00 | 0.00 | 0.00 | 70 | 1009.9 |
| 20260506203321 | 87 | 151 | 0.9 | 8.7 | 0.00 | 0.00 | 0.00 | 70 | 1009.9 |
| 20260506203223 | 87 | 131 | 0.9 | 8.7 | 0.00 | 0.00 | 0.00 | 70 | 1009.9 |
| 20260506203128 | 87 | 124 | 1.7 | 8.7 | 0.00 | 0.00 | 0.00 | 70 | 1009.8 |
| 20260506203029 | 87 | 140 | 2.6 | 8.7 | 0.00 | 0.00 | 0.00 | 70 | 1009.9 |
| 20260506202939 | 87 | 135 | 1.7 | 8.7 | 0.00 | 0.00 | 0.00 | 70 | 1009.9 |
| 20260506202824 | 87 | 157 | 0.9 | 8.7 | 0.00 | 0.00 | 0.00 | 70 | 1009.9 |
| 20260506202720 | 87 | 157 | 2.6 | 8.7 | 0.00 | 0.00 | 0.00 | 70 | 1009.8 |
| 20260506202652 | 87 | 132 | 2.6 | 8.7 | 0.00 | 0.00 | 0.00 | 70 | 1009.8 |
| 20260506202532 | 87 | 163 | 1.7 | 6.1 | 0.00 | 0.00 | 0.00 | 70 | 1009.8 |
| 20260506202418 | 87 | 142 | 1.7 | 7.0 | 0.00 | 0.00 | 0.00 | 70 | 1009.9 |
| 20260506202328 | 87 | 209 | 2.6 | 7.0 | 0.00 | 0.00 | 0.00 | 70 | 1009.9 |
| 20260506202224 | 87 | 119 | 2.6 | 7.0 | 0.00 | 0.00 | 0.00 | 70 | 1010.0 |
| 20260506202135 | 87 | 163 | 1.7 | 7.0 | 0.00 | 0.00 | 0.00 | 70 | 1010.0 |
| 20260506202030 | 86 | 152 | 0.9 | 7.0 | 0.00 | 0.00 | 0.00 | 70 | 1010.1 |
| 20260506201916 | 86 | 181 | 0.9 | 7.0 | 0.00 | 0.00 | 0.00 | 69 | 1010.0 |
| 20260506201830 | 86 | 181 | 1.7 | 7.0 | 0.00 | 0.00 | 0.00 | 69 | 1010.0 |
| 20260506201740 | 87 | 178 | 3.5 | 7.0 | 0.00 | 0.00 | 0.00 | 68 | 1010.1 |
| 20260506201641 | 87 | 167 | 3.5 | 7.0 | 0.00 | 0.00 | 0.00 | 68 | 1010.1 |
| 20260506201517 | 87 | 161 | 3.5 | 6.1 | 0.00 | 0.00 | 0.00 | 68 | 1010.1 |
| 20260506201421 | 87 | 144 | 2.6 | 7.0 | 0.00 | 0.00 | 0.00 | 68 | 1010.1 |
| 20260506201334 | 87 | 128 | 2.6 | 7.0 | 0.00 | 0.00 | 0.00 | 68 | 1010.1 |
| 20260506201214 | 87 | 127 | 2.6 | 9.6 | 0.00 | 0.00 | 0.00 | 67 | 1010.1 |
| 20260506201148 | 87 | 137 | 2.6 | 9.6 | 0.00 | 0.00 | 0.00 | 67 | 1010.1 |
| 20260506201022 | 88 | 142 | 2.6 | 9.6 | 0.00 | 0.00 | 0.00 | 68 | 1010.2 |
| 20260506200929 | 88 | 151 | 1.7 | 9.6 | 0.00 | 0.00 | 0.00 | 68 | 1010.2 |
| 20260506200815 | 87 | 146 | 1.7 | 9.6 | 0.00 | 0.00 | 0.00 | 69 | 1010.2 |
| 20260506200720 | 87 | 126 | 2.6 | 9.6 | 0.00 | 0.00 | 0.00 | 68 | 1010.2 |
| 20260506200626 | 87 | 165 | 3.5 | 9.6 | 0.00 | 0.00 | 0.00 | 68 | 1010.2 |
| 20260506200520 | 87 | 117 | 4.3 | 9.6 | 0.00 | 0.00 | 0.00 | 68 | 1010.2 |
| 20260506200453 | 87 | 151 | 4.3 | 9.6 | 0.00 | 0.00 | 0.00 | 68 | 1010.3 |
| 20260506200318 | 87 | 145 | 3.5 | 7.0 | 0.00 | 0.00 | 0.00 | 68 | 1010.3 |
| 20260506200217 | 87 | 133 | 3.5 | 8.7 | 0.00 | 0.00 | 0.00 | 68 | 1010.3 |
| 20260506200127 | 87 | 177 | 3.5 | 8.7 | 0.00 | 0.00 | 0.00 | 67 | 1010.3 |
| 20260506200027 | 88 | 78 | 2.6 | 9.6 | 0.00 | 0.00 | 0.00 | 68 | 1010.4 |
| 20260506195913 | 88 | 190 | 1.7 | 9.6 | 0.00 | 0.00 | 0.00 | 68 | 1010.4 |
| 20260506195846 | 88 | 161 | 1.7 | 9.6 | 0.00 | 0.00 | 0.00 | 68 | 1010.4 |
| 20260506195721 | 87 | 148 | 1.7 | 9.6 | 0.00 | 0.00 | 0.00 | 69 | 1010.3 |
| 20260506195653 | 87 | 148 | 1.7 | 9.6 | 0.00 | 0.00 | 0.00 | 69 | 1010.4 |
| 20260506195532 | 87 | 175 | 2.6 | 9.6 | 0.00 | 0.00 | 0.00 | 68 | 1010.4 |
| 20260506195422 | 87 | 134 | 3.5 | 9.6 | 0.00 | 0.00 | 0.00 | 68 | 1010.4 |
| 20260506195328 | 87 | 136 | 3.5 | 9.6 | 0.00 | 0.00 | 0.00 | 68 | 1010.4 |
| 20260506195213 | 87 | 150 | 4.3 | 9.6 | 0.00 | 0.00 | 0.00 | 68 | 1010.5 |
| 20260506195136 | 87 | 165 | 4.3 | 9.6 | 0.00 | 0.00 | 0.00 | 68 | 1010.5 |
| 20260506195033 | 87 | 136 | 3.5 | 9.6 | 0.00 | 0.00 | 0.00 | 68 | 1010.6 |
| 20260506194919 | 87 | 137 | 3.5 | 7.8 | 0.00 | 0.00 | 0.00 | 68 | 1010.6 |
| 20260506194836 | 87 | 120 | 3.5 | 9.6 | 0.00 | 0.00 | 0.00 | 68 | 1010.6 |
| 20260506194722 | 87 | 123 | 1.7 | 7.8 | 0.00 | 0.00 | 0.00 | 69 | 1010.6 |
| 20260506194645 | 87 | 150 | 1.7 | 7.8 | 0.00 | 0.00 | 0.00 | 69 | 1010.5 |
| 20260506194521 | 87 | 123 | 3.5 | 7.8 | 0.00 | 0.00 | 0.00 | 69 | 1010.5 |
| 20260506194428 | 87 | 140 | 3.5 | 7.8 | 0.00 | 0.00 | 0.00 | 69 | 1010.6 |
| 20260506194313 | 87 | 171 | 2.6 | 7.8 | 0.00 | 0.00 | 0.00 | 70 | 1010.6 |
| 20260506194216 | 87 | 134 | 3.5 | 7.8 | 0.00 | 0.00 | 0.00 | 69 | 1010.6 |
| 20260506194127 | 87 | 130 | 3.5 | 7.8 | 0.00 | 0.00 | 0.00 | 69 | 1010.7 |
| 20260506194021 | 87 | 174 | 3.5 | 9.6 | 0.00 | 0.00 | 0.00 | 70 | 1010.8 |
| 20260506193935 | 86 | 173 | 2.6 | 8.7 | 0.00 | 0.00 | 0.00 | 70 | 1010.7 |
| 20260506193820 | 86 | 178 | 3.5 | 8.7 | 0.00 | 0.00 | 0.00 | 70 | 1010.8 |
| 20260506193721 | 86 | 175 | 3.5 | 8.7 | 0.00 | 0.00 | 0.00 | 70 | 1010.8 |
| 20260506193634 | 86 | 114 | 3.5 | 8.7 | 0.00 | 0.00 | 0.00 | 70 | 1010.9 |
| 20260506193550 | 86 | 174 | 2.6 | 8.7 | 0.00 | 0.00 | 0.00 | 69 | 1011.0 |
| 20260506193414 | 86 | 144 | 2.6 | 8.7 | 0.00 | 0.00 | 0.00 | 69 | 1011.0 |
| 20260506193327 | 86 | 141 | 2.6 | 8.7 | 0.00 | 0.00 | 0.00 | 70 | 1011.0 |
| 20260506193224 | 86 | 145 | 2.6 | 5.2 | 0.00 | 0.00 | 0.00 | 70 | 1011.0 |
| 20260506193141 | 86 | 138 | 2.6 | 5.2 | 0.00 | 0.00 | 0.00 | 70 | 1011.1 |
| 20260506193015 | 86 | 169 | 2.6 | 5.2 | 0.00 | 0.00 | 0.00 | 70 | 1011.1 |
| 20260506192921 | 86 | 153 | 2.6 | 5.2 | 0.00 | 0.00 | 0.00 | 70 | 1011.1 |
| 20260506192834 | 86 | 167 | 2.6 | 6.1 | 0.00 | 0.00 | 0.00 | 70 | 1011.1 |
| 20260506192740 | 86 | 156 | 1.7 | 6.1 | 0.00 | 0.00 | 0.00 | 70 | 1011.2 |
| 20260506192642 | 86 | 160 | 1.7 | 6.1 | 0.00 | 0.00 | 0.00 | 70 | 1011.2 |
| 20260506192522 | 86 | 103 | 1.7 | 7.0 | 0.00 | 0.00 | 0.00 | 70 | 1011.3 |
| 20260506192429 | 86 | 109 | 1.7 | 7.0 | 0.00 | 0.00 | 0.00 | 70 | 1011.4 |
| 20260506192317 | 86 | 163 | 1.7 | 7.0 | 0.00 | 0.00 | 0.00 | 69 | 1011.4 |
| 20260506192213 | 87 | 179 | 1.7 | 7.0 | 0.00 | 0.00 | 0.00 | 69 | 1011.4 |
| 20260506192126 | 87 | 141 | 0.9 | 7.0 | 0.00 | 0.00 | 0.00 | 69 | 1011.4 |
| 20260506192024 | 87 | 134 | 1.7 | 7.0 | 0.00 | 0.00 | 0.00 | 69 | 1011.4 |
| 20260506191937 | 87 | 134 | 1.7 | 7.0 | 0.00 | 0.00 | 0.00 | 69 | 1011.4 |
| 20260506191823 | 86 | 140 | 2.6 | 7.0 | 0.00 | 0.00 | 0.00 | 70 | 1011.4 |
| 20260506191719 | 86 | 139 | 2.6 | 7.0 | 0.00 | 0.00 | 0.00 | 70 | 1011.4 |
| 20260506191651 | 86 | 136 | 2.6 | 7.0 | 0.00 | 0.00 | 0.00 | 70 | 1011.4 |
| 20260506191546 | 86 | 127 | 2.6 | 6.1 | 0.00 | 0.00 | 0.00 | 70 | 1011.4 |
| 20260506191416 | 86 | 136 | 1.7 | 6.1 | 0.00 | 0.00 | 0.00 | 71 | 1011.5 |
| 20260506191329 | 86 | 194 | 1.7 | 6.1 | 0.00 | 0.00 | 0.00 | 71 | 1011.4 |
| 20260506191217 | 86 | 173 | 2.6 | 6.1 | 0.00 | 0.00 | 0.00 | 71 | 1011.5 |
| 20260506191131 | 86 | 153 | 1.7 | 6.1 | 0.00 | 0.00 | 0.00 | 71 | 1011.6 |
| 20260506191033 | 86 | 138 | 1.7 | 6.1 | 0.00 | 0.00 | 0.00 | 70 | 1011.6 |
| 20260506190925 | 85 | 139 | 1.7 | 6.1 | 0.00 | 0.00 | 0.00 | 71 | 1011.7 |
| 20260506190853 | 85 | 136 | 1.7 | 6.1 | 0.00 | 0.00 | 0.00 | 71 | 1011.7 |
| 20260506190719 | 85 | 161 | 2.6 | 6.1 | 0.00 | 0.00 | 0.00 | 71 | 1011.7 |
| 20260506190642 | 85 | 138 | 1.7 | 6.1 | 0.00 | 0.00 | 0.00 | 71 | 1011.7 |
| 20260506190535 | 85 | 123 | 0.9 | 4.3 | 0.00 | 0.00 | 0.00 | 71 | 1011.6 |
| 20260506190448 | 85 | 150 | 0.9 | 4.3 | 0.00 | 0.00 | 0.00 | 71 | 1011.6 |
| 20260506190315 | 86 | 150 | 0.9 | 4.3 | 0.00 | 0.00 | 0.00 | 70 | 1011.7 |
| 20260506190215 | 86 | 149 | 1.7 | 4.3 | 0.00 | 0.00 | 0.00 | 70 | 1011.6 |
| 20260506190128 | 86 | 148 | 1.7 | 4.3 | 0.00 | 0.00 | 0.00 | 70 | 1011.6 |
| 20260506190022 | 86 | 182 | 0.9 | 3.5 | 0.00 | 0.00 | 0.00 | 71 | 1011.7 |
| 20260506185935 | 86 | 137 | 0.9 | 3.5 | 0.00 | 0.00 | 0.00 | 70 | 1011.7 |
| 20260506185822 | 86 | 137 | 0.9 | 6.1 | 0.00 | 0.00 | 0.00 | 71 | 1011.7 |
| 20260506185712 | 86 | 151 | 0.9 | 7.8 | 0.00 | 0.00 | 0.00 | 71 | 1011.8 |
| 20260506185657 | 85 | 151 | 0.9 | 7.8 | 0.00 | 0.00 | 0.00 | 71 | 1011.8 |
| 20260506185532 | 85 | 147 | 1.7 | 7.8 | 0.00 | 0.00 | 0.00 | 71 | 1011.7 |
| 20260506185418 | 85 | 148 | 0.9 | 7.8 | 0.00 | 0.00 | 0.00 | 71 | 1011.8 |
| 20260506185351 | 85 | 163 | 0.9 | 7.8 | 0.00 | 0.00 | 0.00 | 71 | 1011.8 |
| 20260506185217 | 85 | 161 | 1.7 | 7.8 | 0.00 | 0.00 | 0.00 | 71 | 1011.8 |
| 20260506185200 | 85 | 159 | 1.7 | 7.8 | 0.00 | 0.00 | 0.00 | 71 | 1011.8 |
| 20260506185019 | 85 | 138 | 2.6 | 7.8 | 0.00 | 0.00 | 0.00 | 71 | 1011.9 |
| 20260506184926 | 85 | 126 | 1.7 | 7.8 | 0.00 | 0.00 | 0.00 | 71 | 1011.9 |
| 20260506184833 | 85 | 205 | 2.6 | 7.8 | 0.00 | 0.00 | 0.00 | 71 | 1011.9 |
| 20260506184719 | 85 | 159 | 2.6 | 7.8 | 0.00 | 0.00 | 0.00 | 70 | 1011.9 |
| 20260506184642 | 85 | 160 | 2.6 | 7.8 | 0.00 | 0.00 | 0.00 | 70 | 1012.0 |
| 20260506184541 | 85 | 160 | 2.6 | 7.8 | 0.00 | 0.00 | 0.00 | 70 | 1011.9 |
| 20260506184433 | 86 | 132 | 1.7 | 6.1 | 0.00 | 0.00 | 0.00 | 70 | 1011.9 |
| 20260506184320 | 86 | 142 | 1.7 | 6.1 | 0.00 | 0.00 | 0.00 | 70 | 1011.9 |
| 20260506184218 | 86 | 143 | 0.9 | 6.1 | 0.00 | 0.00 | 0.00 | 70 | 1011.9 |
| 20260506184128 | 86 | 191 | 0.9 | 6.1 | 0.00 | 0.00 | 0.00 | 70 | 1012.0 |
| 20260506184024 | 86 | 146 | 1.7 | 6.1 | 0.00 | 0.00 | 0.00 | 70 | 1012.0 |
| 20260506183914 | 86 | 142 | 2.6 | 6.1 | 0.00 | 0.00 | 0.00 | 70 | 1012.0 |
| 20260506183819 | 86 | 118 | 2.6 | 6.1 | 0.00 | 0.00 | 0.00 | 71 | 1012.0 |
| 20260506183722 | 85 | 140 | 1.7 | 6.1 | 0.00 | 0.00 | 0.00 | 72 | 1012.0 |
| 20260506183657 | 85 | 146 | 1.7 | 4.3 | 0.00 | 0.00 | 0.00 | 72 | 1012.0 |
| 20260506183530 | 85 | 152 | 1.7 | 7.0 | 0.00 | 0.00 | 0.00 | 72 | 1012.0 |
| 20260506183420 | 85 | 139 | 1.7 | 7.0 | 0.00 | 0.00 | 0.00 | 72 | 1012.0 |
| 20260506183326 | 85 | 171 | 1.7 | 7.0 | 0.00 | 0.00 | 0.00 | 72 | 1012.0 |
| 20260506183223 | 85 | 138 | 1.7 | 7.0 | 0.00 | 0.00 | 0.00 | 71 | 1012.1 |
| 20260506183134 | 85 | 128 | 1.7 | 7.0 | 0.00 | 0.00 | 0.00 | 71 | 1012.1 |
| 20260506183029 | 85 | 131 | 1.7 | 7.0 | 0.00 | 0.00 | 0.00 | 72 | 1012.1 |
| 20260506182916 | 84 | 123 | 1.7 | 7.0 | 0.00 | 0.00 | 0.00 | 72 | 1012.1 |
| 20260506182813 | 84 | 133 | 2.6 | 7.0 | 0.00 | 0.00 | 0.00 | 71 | 1012.1 |
| 20260506182719 | 84 | 118 | 1.7 | 7.0 | 0.00 | 0.00 | 0.00 | 72 | 1012.1 |
| 20260506182641 | 84 | 132 | 1.7 | 6.1 | 0.00 | 0.00 | 0.00 | 72 | 1012.2 |
| 20260506182538 | 84 | 165 | 1.7 | 5.2 | 0.00 | 0.00 | 0.00 | 72 | 1012.2 |
| 20260506182450 | 84 | 163 | 2.6 | 5.2 | 0.00 | 0.00 | 0.00 | 72 | 1012.1 |
| 20260506182314 | 84 | 115 | 1.7 | 5.2 | 0.00 | 0.00 | 0.00 | 72 | 1012.2 |
| 20260506182216 | 84 | 124 | 0.9 | 5.2 | 0.00 | 0.00 | 0.00 | 73 | 1012.2 |
| 20260506182127 | 84 | 180 | 1.7 | 5.2 | 0.00 | 0.00 | 0.00 | 72 | 1012.2 |
| 20260506182023 | 84 | 126 | 0.9 | 6.1 | 0.00 | 0.00 | 0.00 | 72 | 1012.2 |
| 20260506181956 | 84 | 117 | 1.7 | 6.1 | 0.00 | 0.00 | 0.00 | 72 | 1012.2 |
| 20260506181820 | 84 | 174 | 2.6 | 6.1 | 0.00 | 0.00 | 0.00 | 72 | 1012.2 |
| 20260506181717 | 84 | 124 | 2.6 | 6.1 | 0.00 | 0.00 | 0.00 | 72 | 1012.2 |
| 20260506181633 | 84 | 79 | 1.7 | 6.1 | 0.00 | 0.00 | 0.00 | 73 | 1012.3 |
| 20260506181528 | 84 | 117 | 1.7 | 4.3 | 0.00 | 0.00 | 0.00 | 73 | 1012.2 |
| 20260506181413 | 84 | 116 | 1.7 | 4.3 | 0.00 | 0.00 | 0.00 | 73 | 1012.3 |
| 20260506181327 | 84 | 140 | 1.7 | 4.3 | 0.00 | 0.00 | 0.00 | 73 | 1012.3 |
| 20260506181233 | 84 | 174 | 1.7 | 4.3 | 0.00 | 0.00 | 0.00 | 73 | 1012.3 |
| 20260506181135 | 84 | 182 | 1.7 | 4.3 | 0.00 | 0.00 | 0.00 | 73 | 1012.3 |
| 20260506181016 | 84 | 119 | 0.9 | 4.3 | 0.00 | 0.00 | 0.00 | 73 | 1012.3 |
| 20260506180921 | 84 | 119 | 0.9 | 6.1 | 0.00 | 0.00 | 0.00 | 73 | 1012.3 |
| 20260506180834 | 84 | 119 | 0.9 | 6.1 | 0.00 | 0.00 | 0.00 | 72 | 1012.3 |
| 20260506180740 | 84 | 117 | 0.9 | 6.1 | 0.00 | 0.00 | 0.00 | 72 | 1012.3 |
| 20260506180641 | 84 | 117 | 0.9 | 6.1 | 0.00 | 0.00 | 0.00 | 72 | 1012.4 |
| 20260506180537 | 84 | 117 | 1.7 | 6.1 | 0.00 | 0.00 | 0.00 | 72 | 1012.4 |
| 20260506180421 | 84 | 114 | 0.9 | 6.1 | 0.00 | 0.00 | 0.00 | 72 | 1012.4 |
| 20260506180319 | 84 | 113 | 0.9 | 6.1 | 0.00 | 0.00 | 0.00 | 72 | 1012.4 |
| 20260506180214 | 84 | 111 | 1.7 | 6.1 | 0.00 | 0.00 | 0.00 | 72 | 1012.4 |
| 20260506180146 | 84 | 109 | 1.7 | 6.1 | 0.00 | 0.00 | 0.00 | 72 | 1012.4 |
| 20260506180022 | 84 | 121 | 2.6 | 6.1 | 0.00 | 0.00 | 0.00 | 72 | 1012.5 |
| 20260506175930 | 84 | 136 | 1.7 | 6.1 | 0.00 | 0.00 | 0.00 | 72 | 1012.5 |
| 20260506175841 | 84 | 180 | 1.7 | 6.1 | 0.00 | 0.00 | 0.00 | 72 | 1012.5 |
| 20260506175723 | 84 | 196 | 1.7 | 6.1 | 0.00 | 0.00 | 0.00 | 72 | 1012.5 |
| 20260506175648 | 84 | 119 | 0.9 | 6.1 | 0.00 | 0.00 | 0.00 | 73 | 1012.5 |
| 20260506175549 | 84 | 155 | 0.0 | 4.3 | 0.00 | 0.00 | 0.00 | 73 | 1012.6 |
| 20260506175414 | 84 | 155 | 0.9 | 4.3 | 0.00 | 0.00 | 0.00 | 73 | 1012.6 |
| 20260506175321 | 84 | 155 | 0.9 | 4.3 | 0.00 | 0.00 | 0.00 | 73 | 1012.6 |
| 20260506175234 | 84 | 160 | 0.9 | 4.3 | 0.00 | 0.00 | 0.00 | 73 | 1012.6 |
| 20260506175140 | 84 | 161 | 0.9 | 4.3 | 0.00 | 0.00 | 0.00 | 73 | 1012.6 |
| 20260506175016 | 84 | 161 | 0.9 | 4.3 | 0.00 | 0.00 | 0.00 | 72 | 1012.6 |
| 20260506174921 | 84 | 159 | 0.9 | 4.3 | 0.00 | 0.00 | 0.00 | 72 | 1012.6 |
| 20260506174854 | 84 | 160 | 1.7 | 4.3 | 0.00 | 0.00 | 0.00 | 72 | 1012.7 |
| 20260506174720 | 84 | 150 | 1.7 | 4.3 | 0.00 | 0.00 | 0.00 | 72 | 1012.7 |
| 20260506174637 | 84 | 135 | 1.7 | 4.3 | 0.00 | 0.00 | 0.00 | 72 | 1012.7 |
| 20260506174516 | 84 | 140 | 1.7 | 4.3 | 0.00 | 0.00 | 0.00 | 73 | 1012.7 |
| 20260506174429 | 84 | 136 | 1.7 | 4.3 | 0.00 | 0.00 | 0.00 | 73 | 1012.6 |
| 20260506174314 | 84 | 160 | 1.7 | 4.3 | 0.00 | 0.00 | 0.00 | 73 | 1012.7 |
| 20260506174219 | 84 | 161 | 1.7 | 4.3 | 0.00 | 0.00 | 0.00 | 73 | 1012.7 |
| 20260506174143 | 84 | 142 | 1.7 | 4.3 | 0.00 | 0.00 | 0.00 | 73 | 1012.7 |
| 20260506174022 | 84 | 173 | 0.9 | 5.2 | 0.00 | 0.00 | 0.00 | 73 | 1012.7 |
| 20260506173929 | 84 | 173 | 0.9 | 5.2 | 0.00 | 0.00 | 0.00 | 73 | 1012.7 |
| 20260506173816 | 84 | 129 | 1.7 | 5.2 | 0.00 | 0.00 | 0.00 | 73 | 1012.7 |
| 20260506173740 | 84 | 126 | 2.6 | 7.0 | 0.00 | 0.00 | 0.00 | 73 | 1012.7 |
| 20260506173643 | 84 | 126 | 2.6 | 7.0 | 0.00 | 0.00 | 0.00 | 73 | 1012.7 |
| 20260506173518 | 84 | 115 | 0.9 | 7.0 | 0.00 | 0.00 | 0.00 | 74 | 1012.6 |
| 20260506173417 | 84 | 109 | 0.0 | 7.0 | 0.00 | 0.00 | 0.00 | 74 | 1012.7 |
| 20260506173323 | 84 | 107 | 0.0 | 7.0 | 0.00 | 0.00 | 0.00 | 74 | 1012.7 |
| 20260506173219 | 84 | 106 | 0.0 | 7.0 | 0.00 | 0.00 | 0.00 | 73 | 1012.7 |
| 20260506173130 | 84 | 106 | 0.9 | 7.0 | 0.00 | 0.00 | 0.00 | 74 | 1012.6 |
| 20260506173026 | 84 | 128 | 2.6 | 7.0 | 0.00 | 0.00 | 0.00 | 74 | 1012.6 |
| 20260506172914 | 84 | 147 | 2.6 | 7.0 | 0.00 | 0.00 | 0.00 | 74 | 1012.7 |
| 20260506172829 | 84 | 124 | 1.7 | 5.2 | 0.00 | 0.00 | 0.00 | 74 | 1012.7 |
| 20260506172716 | 84 | 140 | 0.9 | 5.2 | 0.00 | 0.00 | 0.00 | 75 | 1012.7 |
| 20260506172631 | 84 | 157 | 0.9 | 3.5 | 0.00 | 0.00 | 0.00 | 75 | 1012.7 |
| 20260506172533 | 83 | 121 | 0.9 | 3.5 | 0.00 | 0.00 | 0.00 | 75 | 1012.7 |
| 20260506172440 | 83 | 120 | 0.9 | 3.5 | 0.00 | 0.00 | 0.00 | 75 | 1012.7 |
| 20260506172329 | 83 | 119 | 0.9 | 3.5 | 0.00 | 0.00 | 0.00 | 75 | 1012.8 |
| 20260506172216 | 83 | 116 | 0.0 | 3.5 | 0.00 | 0.00 | 0.00 | 76 | 1012.8 |
| 20260506172139 | 83 | 116 | 0.9 | 3.5 | 0.00 | 0.00 | 0.00 | 76 | 1012.8 |
| 20260506172013 | 83 | 130 | 0.9 | 3.5 | 0.00 | 0.00 | 0.00 | 76 | 1012.8 |
| 20260506171924 | 83 | 144 | 0.9 | 3.5 | 0.00 | 0.00 | 0.00 | 76 | 1012.8 |
| 20260506171816 | 83 | 143 | 0.9 | 4.3 | 0.00 | 0.00 | 0.00 | 76 | 1012.8 |
| 20260506171721 | 83 | 143 | 1.7 | 4.3 | 0.00 | 0.00 | 0.00 | 76 | 1012.8 |
| 20260506171624 | 83 | 143 | 1.7 | 4.3 | 0.00 | 0.00 | 0.00 | 76 | 1012.8 |
| 20260506171519 | 83 | 126 | 1.7 | 4.3 | 0.00 | 0.00 | 0.00 | 76 | 1012.9 |
| 20260506171424 | 83 | 169 | 1.7 | 4.3 | 0.00 | 0.00 | 0.00 | 76 | 1012.8 |
| 20260506171337 | 83 | 142 | 1.7 | 4.3 | 0.00 | 0.00 | 0.00 | 76 | 1012.9 |
| 20260506171237 | 83 | 130 | 1.7 | 4.3 | 0.00 | 0.00 | 0.00 | 76 | 1012.9 |
| 20260506171148 | 83 | 129 | 1.7 | 4.3 | 0.00 | 0.00 | 0.00 | 76 | 1012.9 |
| 20260506171043 | 82 | 142 | 1.7 | 4.3 | 0.00 | 0.00 | 0.00 | 76 | 1012.9 |
| 20260506170927 | 82 | 124 | 1.7 | 4.3 | 0.00 | 0.00 | 0.00 | 76 | 1012.9 |
| 20260506170822 | 82 | 151 | 0.9 | 3.5 | 0.00 | 0.00 | 0.00 | 77 | 1012.9 |
| 20260506170718 | 82 | 175 | 0.9 | 3.5 | 0.00 | 0.00 | 0.00 | 77 | 1013.0 |
| 20260506170635 | 82 | 184 | 0.9 | 3.5 | 0.00 | 0.00 | 0.00 | 77 | 1013.0 |
| 20260506170529 | 82 | 141 | 0.0 | 3.5 | 0.00 | 0.00 | 0.00 | 77 | 1013.0 |
| 20260506170416 | 82 | 140 | 0.9 | 3.5 | 0.00 | 0.00 | 0.00 | 76 | 1012.9 |
| 20260506170324 | 82 | 140 | 0.9 | 3.5 | 0.00 | 0.00 | 0.00 | 77 | 1013.0 |
| 20260506170219 | 82 | 144 | 0.0 | 3.5 | 0.00 | 0.00 | 0.00 | 77 | 1013.0 |
| 20260506170136 | 82 | 144 | 0.0 | 3.5 | 0.00 | 0.00 | 0.00 | 77 | 1013.0 |
| 20260506170038 | 82 | 144 | 0.0 | 3.5 | 0.00 | 0.00 | 0.00 | 77 | 1013.0 |
| 20260506165943 | 82 | 144 | 0.9 | 3.5 | 0.00 | 0.00 | 0.00 | 77 | 1013.0 |
| 20260506165855 | 82 | 144 | 0.9 | 4.3 | 0.00 | 0.00 | 0.00 | 77 | 1012.9 |
| 20260506165741 | 82 | 150 | 1.7 | 4.3 | 0.00 | 0.00 | 0.00 | 77 | 1012.9 |
| 20260506165642 | 82 | 150 | 0.9 | 4.3 | 0.00 | 0.00 | 0.00 | 77 | 1013.0 |
| 20260506165538 | 82 | 167 | 0.0 | 4.3 | 0.00 | 0.00 | 0.00 | 77 | 1013.0 |
| 20260506165428 | 82 | 167 | 0.9 | 4.3 | 0.00 | 0.00 | 0.00 | 77 | 1012.9 |
| 20260506165313 | 82 | 167 | 0.9 | 6.1 | 0.00 | 0.00 | 0.00 | 77 | 1013.0 |
| 20260506165218 | 82 | 165 | 0.9 | 6.1 | 0.00 | 0.00 | 0.00 | 77 | 1013.0 |
| 20260506165143 | 82 | 163 | 0.9 | 6.1 | 0.00 | 0.00 | 0.00 | 77 | 1013.0 |
| 20260506165018 | 82 | 149 | 0.9 | 6.1 | 0.00 | 0.00 | 0.00 | 77 | 1013.0 |
| 20260506164931 | 82 | 130 | 0.9 | 6.1 | 0.00 | 0.00 | 0.00 | 77 | 1013.0 |
| 20260506164823 | 82 | 135 | 1.7 | 6.1 | 0.00 | 0.00 | 0.00 | 77 | 1013.0 |
| 20260506164719 | 82 | 135 | 2.6 | 6.1 | 0.00 | 0.00 | 0.00 | 77 | 1013.0 |
| 20260506164631 | 82 | 119 | 2.6 | 6.1 | 0.00 | 0.00 | 0.00 | 77 | 1013.0 |
| 20260506164526 | 82 | 134 | 1.7 | 6.1 | 0.00 | 0.00 | 0.00 | 77 | 1013.0 |
| 20260506164439 | 82 | 225 | 0.0 | 4.3 | 0.00 | 0.00 | 0.00 | 77 | 1013.1 |
| 20260506164328 | 82 | 147 | 0.0 | 2.6 | 0.00 | 0.00 | 0.00 | 77 | 1013.0 |
| 20260506164244 | 82 | 147 | 0.0 | 2.6 | 0.00 | 0.00 | 0.00 | 77 | 1013.1 |
| 20260506164134 | 82 | 147 | 0.9 | 2.6 | 0.00 | 0.00 | 0.00 | 77 | 1013.0 |
| 20260506164029 | 82 | 147 | 0.9 | 2.6 | 0.00 | 0.00 | 0.00 | 77 | 1013.0 |
| 20260506163914 | 82 | 146 | 0.0 | 2.6 | 0.00 | 0.00 | 0.00 | 77 | 1013.0 |
| 20260506163828 | 82 | 145 | 0.0 | 2.6 | 0.00 | 0.00 | 0.00 | 77 | 1013.0 |
| 20260506163719 | 82 | 144 | 0.0 | 2.6 | 0.00 | 0.00 | 0.00 | 77 | 1013.0 |
| 20260506163635 | 82 | 144 | 0.0 | 2.6 | 0.00 | 0.00 | 0.00 | 77 | 1013.0 |
| 20260506163537 | 82 | 144 | 0.0 | 2.6 | 0.00 | 0.00 | 0.00 | 77 | 1013.0 |
| 20260506163423 | 82 | 144 | 0.0 | 2.6 | 0.00 | 0.00 | 0.00 | 77 | 1013.0 |
| 20260506163329 | 82 | 144 | 0.0 | 2.6 | 0.00 | 0.00 | 0.00 | 77 | 1013.0 |
| 20260506163221 | 82 | 143 | 0.9 | 2.6 | 0.00 | 0.00 | 0.00 | 77 | 1013.0 |
| 20260506163143 | 82 | 143 | 1.7 | 2.6 | 0.00 | 0.00 | 0.00 | 77 | 1013.1 |
| 20260506163018 | 82 | 167 | 0.9 | 3.5 | 0.00 | 0.00 | 0.00 | 77 | 1013.1 |
| 20260506162923 | 82 | 153 | 0.0 | 1.7 | 0.00 | 0.00 | 0.00 | 77 | 1013.0 |
| 20260506162836 | 82 | 153 | 0.0 | 1.7 | 0.00 | 0.00 | 0.00 | 77 | 1013.0 |
| 20260506162741 | 82 | 153 | 0.0 | 1.7 | 0.00 | 0.00 | 0.00 | 77 | 1013.0 |
| 20260506162628 | 82 | 153 | 0.0 | 1.7 | 0.00 | 0.00 | 0.00 | 77 | 1013.0 |
| 20260506162542 | 82 | 153 | 0.0 | 1.7 | 0.00 | 0.00 | 0.00 | 77 | 1013.0 |
| 20260506162515 | 82 | 153 | 0.0 | 2.6 | 0.00 | 0.00 | 0.00 | 77 | 1013.0 |
| 20260506161738 | 82 | 155 | 0.9 | 3.5 | 0.00 | 0.00 | 0.00 | 77 | 1012.9 |
| 20260506161649 | 82 | 155 | 0.9 | 3.5 | 0.00 | 0.00 | 0.00 | 77 | 1012.9 |
| 20260506161523 | 82 | 161 | 0.9 | 3.5 | 0.00 | 0.00 | 0.00 | 77 | 1012.9 |
| 20260506161436 | 82 | 130 | 0.9 | 3.5 | 0.00 | 0.00 | 0.00 | 77 | 1012.8 |
| 20260506161325 | 82 | 122 | 0.0 | 2.6 | 0.00 | 0.00 | 0.00 | 78 | 1012.8 |
| 20260506161223 | 82 | 122 | 0.0 | 3.5 | 0.00 | 0.00 | 0.00 | 78 | 1012.8 |
| 20260506161136 | 82 | 122 | 0.0 | 3.5 | 0.00 | 0.00 | 0.00 | 78 | 1012.8 |
| 20260506161028 | 82 | 122 | 0.9 | 3.5 | 0.00 | 0.00 | 0.00 | 77 | 1012.8 |
| 20260506160912 | 82 | 158 | 0.0 | 3.5 | 0.00 | 0.00 | 0.00 | 78 | 1012.8 |
| 20260506160831 | 82 | 158 | 0.0 | 3.5 | 0.00 | 0.00 | 0.00 | 78 | 1012.8 |
| 20260506160718 | 82 | 158 | 0.9 | 4.3 | 0.00 | 0.00 | 0.00 | 77 | 1012.8 |
| 20260506160704 | 82 | 156 | 0.9 | 4.3 | 0.00 | 0.00 | 0.00 | 78 | 1012.7 |
| 20260506160537 | 82 | 156 | 0.9 | 4.3 | 0.00 | 0.00 | 0.00 | 77 | 1012.7 |
| 20260506160423 | 82 | 156 | 0.9 | 4.3 | 0.00 | 0.00 | 0.00 | 78 | 1012.7 |
| 20260506160330 | 82 | 146 | 0.9 | 4.3 | 0.00 | 0.00 | 0.00 | 78 | 1012.7 |
| 20260506160220 | 82 | 151 | 0.9 | 4.3 | 0.00 | 0.00 | 0.00 | 78 | 1012.7 |
| 20260506160143 | 82 | 151 | 0.9 | 4.3 | 0.00 | 0.00 | 0.00 | 78 | 1012.7 |
| 20260506160019 | 82 | 151 | 1.7 | 7.0 | 0.00 | 0.00 | 0.00 | 78 | 1012.7 |
| 20260506155925 | 81 | 133 | 0.9 | 7.0 | 0.00 | 0.00 | 0.00 | 78 | 1012.6 |
| 20260506155839 | 82 | 134 | 0.9 | 7.0 | 0.00 | 0.00 | 0.00 | 78 | 1012.7 |
| 20260506155718 | 81 | 138 | 0.0 | 7.0 | 0.00 | 0.00 | 0.00 | 78 | 1012.6 |
| 20260506155630 | 81 | 137 | 0.0 | 7.0 | 0.00 | 0.00 | 0.00 | 78 | 1012.6 |
| 20260506155545 | 81 | 133 | 0.0 | 7.0 | 0.00 | 0.00 | 0.00 | 78 | 1012.6 |
| 20260506155437 | 81 | 133 | 0.9 | 7.0 | 0.00 | 0.00 | 0.00 | 78 | 1012.6 |
| 20260506155322 | 81 | 133 | 1.7 | 7.0 | 0.00 | 0.00 | 0.00 | 78 | 1012.6 |
| 20260506155220 | 81 | 151 | 1.7 | 7.0 | 0.00 | 0.00 | 0.00 | 78 | 1012.6 |
| 20260506155135 | 81 | 150 | 1.7 | 7.0 | 0.00 | 0.00 | 0.00 | 78 | 1012.6 |
| 20260506155030 | 81 | 187 | 0.0 | 3.5 | 0.00 | 0.00 | 0.00 | 78 | 1012.6 |
| 20260506154916 | 81 | 141 | 0.0 | 3.5 | 0.00 | 0.00 | 0.00 | 78 | 1012.6 |
| 20260506154848 | 81 | 141 | 0.9 | 3.5 | 0.00 | 0.00 | 0.00 | 78 | 1012.6 |
| 20260506154713 | 81 | 141 | 1.7 | 3.5 | 0.00 | 0.00 | 0.00 | 78 | 1012.6 |
| 20260506154630 | 81 | 140 | 1.7 | 4.3 | 0.00 | 0.00 | 0.00 | 78 | 1012.6 |
| 20260506154518 | 81 | 207 | 1.7 | 4.3 | 0.00 | 0.00 | 0.00 | 79 | 1012.5 |
| 20260506154422 | 81 | 138 | 0.9 | 4.3 | 0.00 | 0.00 | 0.00 | 79 | 1012.6 |
| 20260506154327 | 81 | 136 | 0.0 | 4.3 | 0.00 | 0.00 | 0.00 | 79 | 1012.5 |
| 20260506154240 | 81 | 134 | 0.9 | 7.0 | 0.00 | 0.00 | 0.00 | 79 | 1012.5 |
| 20260506154133 | 81 | 135 | 0.9 | 7.0 | 0.00 | 0.00 | 0.00 | 79 | 1012.5 |
| 20260506154036 | 81 | 162 | 0.9 | 7.0 | 0.00 | 0.00 | 0.00 | 79 | 1012.5 |
| 20260506153946 | 81 | 156 | 0.9 | 7.0 | 0.00 | 0.00 | 0.00 | 79 | 1012.5 |
| 20260506153831 | 81 | 157 | 1.7 | 7.0 | 0.00 | 0.00 | 0.00 | 79 | 1012.5 |
| 20260506153718 | 81 | 150 | 1.7 | 7.0 | 0.00 | 0.00 | 0.00 | 79 | 1012.4 |
| 20260506153640 | 81 | 136 | 1.7 | 7.0 | 0.00 | 0.00 | 0.00 | 79 | 1012.4 |
| 20260506153516 | 81 | 113 | 1.7 | 7.0 | 0.00 | 0.00 | 0.00 | 80 | 1012.5 |
| 20260506153423 | 80 | 111 | 1.7 | 7.0 | 0.00 | 0.00 | 0.00 | 80 | 1012.4 |
| 20260506153312 | 80 | 143 | 2.6 | 7.0 | 0.00 | 0.00 | 0.00 | 80 | 1012.4 |
| 20260506153217 | 80 | 132 | 1.7 | 7.0 | 0.00 | 0.00 | 0.00 | 80 | 1012.4 |
| 20260506153150 | 80 | 145 | 2.6 | 7.0 | 0.00 | 0.00 | 0.00 | 80 | 1012.4 |
| 20260506153044 | 80 | 128 | 3.5 | 7.0 | 0.00 | 0.00 | 0.00 | 80 | 1012.4 |
| 20260506152929 | 80 | 169 | 2.6 | 5.2 | 0.00 | 0.00 | 0.00 | 80 | 1012.4 |
| 20260506152819 | 80 | 125 | 2.6 | 5.2 | 0.00 | 0.00 | 0.00 | 81 | 1012.3 |
| 20260506152716 | 80 | 165 | 1.7 | 5.2 | 0.00 | 0.00 | 0.00 | 81 | 1012.4 |
| 20260506152627 | 80 | 186 | 0.9 | 5.2 | 0.00 | 0.00 | 0.00 | 81 | 1012.4 |
| 20260506152529 | 80 | 173 | 0.0 | 5.2 | 0.00 | 0.00 | 0.00 | 81 | 1012.4 |
| 20260506152434 | 80 | 173 | 2.6 | 5.2 | 0.00 | 0.00 | 0.00 | 81 | 1012.3 |
| 20260506152327 | 80 | 173 | 2.6 | 6.1 | 0.00 | 0.00 | 0.00 | 81 | 1012.3 |
| 20260506152234 | 80 | 144 | 1.7 | 6.1 | 0.00 | 0.00 | 0.00 | 81 | 1012.3 |
| 20260506152139 | 80 | 163 | 1.7 | 6.1 | 0.00 | 0.00 | 0.00 | 81 | 1012.3 |
| 20260506152037 | 80 | 138 | 2.6 | 6.1 | 0.00 | 0.00 | 0.00 | 81 | 1012.3 |
| 20260506151923 | 80 | 145 | 1.7 | 6.1 | 0.00 | 0.00 | 0.00 | 81 | 1012.3 |
| 20260506151835 | 80 | 143 | 1.7 | 6.1 | 0.00 | 0.00 | 0.00 | 82 | 1012.2 |
| 20260506151721 | 80 | 142 | 0.9 | 4.3 | 0.00 | 0.00 | 0.00 | 82 | 1012.3 |
| 20260506151646 | 80 | 140 | 1.7 | 4.3 | 0.00 | 0.00 | 0.00 | 82 | 1012.3 |
| 20260506151545 | 80 | 163 | 0.9 | 4.3 | 0.00 | 0.00 | 0.00 | 82 | 1012.3 |
| 20260506151436 | 80 | 180 | 0.9 | 4.3 | 0.00 | 0.00 | 0.00 | 82 | 1012.3 |
| 20260506151322 | 79 | 177 | 0.9 | 4.3 | 0.00 | 0.00 | 0.00 | 82 | 1012.3 |
| 20260506151240 | 79 | 177 | 0.9 | 4.3 | 0.00 | 0.00 | 0.00 | 82 | 1012.4 |
| 20260506151128 | 79 | 177 | 0.9 | 4.3 | 0.00 | 0.00 | 0.00 | 82 | 1012.4 |
| 20260506151030 | 79 | 177 | 0.9 | 5.2 | 0.00 | 0.00 | 0.00 | 82 | 1012.4 |
| 20260506150917 | 79 | 130 | 0.0 | 4.3 | 0.00 | 0.00 | 0.00 | 83 | 1012.4 |
| 20260506150826 | 79 | 130 | 0.9 | 4.3 | 0.00 | 0.00 | 0.00 | 83 | 1012.5 |
| 20260506150739 | 79 | 130 | 0.9 | 5.2 | 0.00 | 0.00 | 0.00 | 83 | 1012.5 |
| 20260506150633 | 79 | 130 | 0.9 | 5.2 | 0.00 | 0.00 | 0.00 | 83 | 1012.5 |
| 20260506150535 | 79 | 149 | 0.9 | 6.1 | 0.00 | 0.00 | 0.00 | 83 | 1012.5 |
| 20260506150421 | 79 | 149 | 0.9 | 6.1 | 0.00 | 0.00 | 0.00 | 83 | 1012.5 |
| 20260506150326 | 79 | 122 | 0.9 | 6.1 | 0.00 | 0.00 | 0.00 | 83 | 1012.5 |
| 20260506150216 | 79 | 115 | 0.9 | 6.1 | 0.00 | 0.00 | 0.00 | 83 | 1012.5 |
| 20260506150139 | 79 | 115 | 0.9 | 6.1 | 0.00 | 0.00 | 0.00 | 83 | 1012.5 |
| 20260506150013 | 79 | 113 | 1.7 | 6.1 | 0.00 | 0.00 | 0.00 | 83 | 1012.5 |
| 20260506145919 | 79 | 177 | 1.7 | 6.1 | 0.00 | 0.00 | 0.00 | 83 | 1012.5 |
| 20260506145832 | 79 | 175 | 1.7 | 6.1 | 0.00 | 0.00 | 0.00 | 83 | 1012.5 |
| 20260506145712 | 79 | 160 | 2.6 | 6.1 | 0.00 | 0.00 | 0.00 | 83 | 1012.5 |
| 20260506145646 | 79 | 184 | 1.7 | 6.1 | 0.00 | 0.00 | 0.00 | 83 | 1012.5 |
| 20260506145522 | 79 | 124 | 0.0 | 4.3 | 0.00 | 0.00 | 0.00 | 83 | 1012.5 |
| 20260506145446 | 79 | 124 | 0.9 | 4.3 | 0.00 | 0.00 | 0.00 | 83 | 1012.5 |
| 20260506145338 | 79 | 124 | 0.9 | 4.3 | 0.00 | 0.00 | 0.00 | 83 | 1012.4 |
| 20260506145233 | 79 | 155 | 0.9 | 4.3 | 0.00 | 0.00 | 0.00 | 84 | 1012.5 |
| 20260506145145 | 79 | 155 | 0.9 | 4.3 | 0.00 | 0.00 | 0.00 | 84 | 1012.5 |
| 20260506145022 | 79 | 138 | 0.0 | 3.5 | 0.00 | 0.00 | 0.00 | 84 | 1012.5 |
| 20260506144934 | 79 | 138 | 0.0 | 3.5 | 0.00 | 0.00 | 0.00 | 84 | 1012.5 |
| 20260506144820 | 79 | 138 | 0.9 | 3.5 | 0.00 | 0.00 | 0.00 | 84 | 1012.5 |
| 20260506144718 | 79 | 140 | 0.9 | 3.5 | 0.00 | 0.00 | 0.00 | 84 | 1012.5 |
| 20260506144629 | 79 | 138 | 0.9 | 3.5 | 0.00 | 0.00 | 0.00 | 84 | 1012.5 |
| 20260506144525 | 79 | 137 | 0.9 | 3.5 | 0.00 | 0.00 | 0.00 | 84 | 1012.5 |
| 20260506144414 | 79 | 137 | 0.9 | 3.5 | 0.00 | 0.00 | 0.00 | 84 | 1012.5 |
| 20260506144320 | 79 | 142 | 0.9 | 4.3 | 0.00 | 0.00 | 0.00 | 84 | 1012.5 |
| 20260506144233 | 78 | 163 | 0.9 | 4.3 | 0.00 | 0.00 | 0.00 | 84 | 1012.5 |
| 20260506144130 | 78 | 163 | 0.9 | 4.3 | 0.00 | 0.00 | 0.00 | 84 | 1012.5 |
| 20260506144033 | 78 | 159 | 0.9 | 4.3 | 0.00 | 0.00 | 0.00 | 84 | 1012.4 |
| 20260506143924 | 78 | 107 | 0.9 | 3.5 | 0.00 | 0.00 | 0.00 | 84 | 1012.4 |
| 20260506143837 | 78 | 105 | 0.9 | 4.3 | 0.00 | 0.00 | 0.00 | 84 | 1012.4 |
| 20260506143723 | 78 | 168 | 1.7 | 4.3 | 0.00 | 0.00 | 0.00 | 84 | 1012.4 |
| 20260506143640 | 78 | 158 | 0.9 | 4.3 | 0.00 | 0.00 | 0.00 | 84 | 1012.4 |
| 20260506143514 | 78 | 140 | 0.9 | 3.5 | 0.00 | 0.00 | 0.00 | 84 | 1012.4 |
| 20260506143428 | 78 | 140 | 1.7 | 3.5 | 0.00 | 0.00 | 0.00 | 84 | 1012.4 |
| 20260506143318 | 78 | 132 | 0.9 | 4.3 | 0.00 | 0.00 | 0.00 | 84 | 1012.4 |
| 20260506143213 | 78 | 131 | 0.0 | 4.3 | 0.00 | 0.00 | 0.00 | 84 | 1012.5 |
| 20260506143148 | 78 | 131 | 0.0 | 4.3 | 0.00 | 0.00 | 0.00 | 84 | 1012.5 |
| 20260506143023 | 78 | 131 | 0.0 | 4.3 | 0.00 | 0.00 | 0.00 | 84 | 1012.4 |
| 20260506142929 | 78 | 131 | 0.0 | 7.0 | 0.00 | 0.00 | 0.00 | 84 | 1012.5 |
| 20260506142816 | 78 | 131 | 0.9 | 7.0 | 0.00 | 0.00 | 0.00 | 84 | 1012.4 |
| 20260506142723 | 78 | 131 | 1.7 | 7.0 | 0.00 | 0.00 | 0.00 | 84 | 1012.4 |
| 20260506142627 | 78 | 131 | 1.7 | 7.0 | 0.00 | 0.00 | 0.00 | 84 | 1012.4 |
| 20260506142529 | 78 | 128 | 0.9 | 7.0 | 0.00 | 0.00 | 0.00 | 84 | 1012.4 |
| 20260506142417 | 78 | 144 | 0.9 | 7.0 | 0.00 | 0.00 | 0.00 | 84 | 1012.4 |
| 20260506142323 | 78 | 144 | 0.9 | 7.0 | 0.00 | 0.00 | 0.00 | 84 | 1012.5 |
| 20260506142212 | 78 | 144 | 0.9 | 7.0 | 0.00 | 0.00 | 0.00 | 84 | 1012.4 |
| 20260506142136 | 78 | 144 | 0.9 | 7.0 | 0.00 | 0.00 | 0.00 | 84 | 1012.4 |
| 20260506142036 | 78 | 144 | 1.7 | 7.0 | 0.00 | 0.00 | 0.00 | 84 | 1012.4 |
| 20260506141942 | 78 | 151 | 0.9 | 4.3 | 0.00 | 0.00 | 0.00 | 84 | 1012.4 |
| 20260506141828 | 78 | 171 | 0.9 | 4.3 | 0.00 | 0.00 | 0.00 | 84 | 1012.4 |
| 20260506141713 | 78 | 178 | 1.7 | 4.3 | 0.00 | 0.00 | 0.00 | 84 | 1012.4 |
| 20260506141640 | 78 | 149 | 1.7 | 2.6 | 0.00 | 0.00 | 0.00 | 84 | 1012.4 |
| 20260506141516 | 78 | 132 | 0.9 | 2.6 | 0.00 | 0.00 | 0.00 | 85 | 1012.4 |
| 20260506141421 | 78 | 144 | 0.0 | 3.5 | 0.00 | 0.00 | 0.00 | 85 | 1012.4 |
| 20260506141335 | 78 | 144 | 0.9 | 3.5 | 0.00 | 0.00 | 0.00 | 85 | 1012.4 |
| 20260506141212 | 78 | 144 | 0.0 | 3.5 | 0.00 | 0.00 | 0.00 | 85 | 1012.3 |
| 20260506141137 | 78 | 144 | 0.0 | 3.5 | 0.00 | 0.00 | 0.00 | 85 | 1012.3 |
| 20260506141016 | 78 | 144 | 0.9 | 3.5 | 0.00 | 0.00 | 0.00 | 85 | 1012.4 |
| 20260506140929 | 78 | 143 | 0.0 | 3.5 | 0.00 | 0.00 | 0.00 | 85 | 1012.3 |
| 20260506140814 | 78 | 142 | 0.9 | 3.5 | 0.00 | 0.00 | 0.00 | 85 | 1012.3 |
| 20260506140721 | 78 | 142 | 0.9 | 3.5 | 0.00 | 0.00 | 0.00 | 85 | 1012.3 |
| 20260506140646 | 78 | 143 | 0.9 | 3.5 | 0.00 | 0.00 | 0.00 | 85 | 1012.3 |
| 20260506140523 | 78 | 144 | 0.9 | 3.5 | 0.00 | 0.00 | 0.00 | 85 | 1012.3 |
| 20260506140435 | 78 | 148 | 1.7 | 3.5 | 0.00 | 0.00 | 0.00 | 85 | 1012.3 |
| 20260506140321 | 78 | 147 | 1.7 | 7.0 | 0.00 | 0.00 | 0.00 | 85 | 1012.2 |
| 20260506140238 | 78 | 179 | 1.7 | 7.0 | 0.00 | 0.00 | 0.00 | 85 | 1012.2 |
| 20260506140131 | 78 | 140 | 0.9 | 7.0 | 0.00 | 0.00 | 0.00 | 85 | 1012.2 |
| 20260506140026 | 78 | 129 | 0.9 | 7.0 | 0.00 | 0.00 | 0.00 | 85 | 1012.2 |
| 20260506135916 | 78 | 189 | 0.0 | 7.0 | 0.00 | 0.00 | 0.00 | 85 | 1012.2 |
| 20260506135828 | 78 | 189 | 0.0 | 7.0 | 0.00 | 0.00 | 0.00 | 85 | 1012.2 |
| 20260506135716 | 78 | 189 | 0.9 | 7.0 | 0.00 | 0.00 | 0.00 | 85 | 1012.2 |
| 20260506135631 | 78 | 189 | 1.7 | 7.0 | 0.00 | 0.00 | 0.00 | 85 | 1012.2 |
| 20260506135533 | 78 | 119 | 1.7 | 7.0 | 0.00 | 0.00 | 0.00 | 85 | 1012.2 |
| 20260506135425 | 78 | 112 | 1.7 | 6.1 | 0.00 | 0.00 | 0.00 | 85 | 1012.2 |
| 20260506135330 | 78 | 137 | 0.9 | 6.1 | 0.00 | 0.00 | 0.00 | 85 | 1012.2 |
| 20260506135216 | 78 | 134 | 0.0 | 6.1 | 0.00 | 0.00 | 0.00 | 85 | 1012.1 |
| 20260506135201 | 78 | 134 | 0.0 | 6.1 | 0.00 | 0.00 | 0.00 | 85 | 1012.2 |
| 20260506135034 | 78 | 169 | 0.9 | 6.1 | 0.00 | 0.00 | 0.00 | 85 | 1012.1 |
| 20260506134927 | 78 | 169 | 0.9 | 6.1 | 0.00 | 0.00 | 0.00 | 85 | 1012.1 |
| 20260506134818 | 78 | 166 | 0.9 | 6.1 | 0.00 | 0.00 | 0.00 | 86 | 1012.2 |
| 20260506134715 | 77 | 201 | 2.6 | 6.1 | 0.00 | 0.00 | 0.00 | 86 | 1012.1 |
| 20260506134626 | 78 | 222 | 2.6 | 6.1 | 0.00 | 0.00 | 0.00 | 86 | 1012.2 |
| 20260506134521 | 77 | 156 | 1.7 | 4.3 | 0.00 | 0.00 | 0.00 | 86 | 1012.1 |
| 20260506134426 | 77 | 128 | 1.7 | 4.3 | 0.00 | 0.00 | 0.00 | 86 | 1012.2 |
| 20260506134339 | 77 | 168 | 1.7 | 4.3 | 0.00 | 0.00 | 0.00 | 86 | 1012.2 |
| 20260506134239 | 77 | 158 | 1.7 | 6.1 | 0.00 | 0.00 | 0.00 | 86 | 1012.2 |
| 20260506134152 | 77 | 130 | 0.9 | 6.1 | 0.00 | 0.00 | 0.00 | 86 | 1012.2 |
| 20260506134027 | 77 | 165 | 0.9 | 6.1 | 0.00 | 0.00 | 0.00 | 86 | 1012.2 |
| 20260506133912 | 77 | 163 | 0.9 | 6.1 | 0.00 | 0.00 | 0.00 | 86 | 1012.2 |
| 20260506133827 | 77 | 155 | 0.0 | 6.1 | 0.00 | 0.00 | 0.00 | 86 | 1012.2 |
| 20260506133722 | 77 | 155 | 0.9 | 6.1 | 0.00 | 0.00 | 0.00 | 86 | 1012.1 |
| 20260506133652 | 77 | 155 | 1.7 | 6.1 | 0.00 | 0.00 | 0.00 | 86 | 1012.1 |
| 20260506133556 | 77 | 177 | 1.7 | 6.1 | 0.00 | 0.00 | 0.00 | 86 | 1012.1 |
| 20260506133420 | 77 | 192 | 1.7 | 6.1 | 0.00 | 0.00 | 0.00 | 86 | 1012.0 |
| 20260506133326 | 77 | 189 | 1.7 | 5.2 | 0.00 | 0.00 | 0.00 | 86 | 1012.0 |
| 20260506133220 | 77 | 159 | 1.7 | 4.3 | 0.00 | 0.00 | 0.00 | 86 | 1012.0 |
| 20260506133134 | 77 | 140 | 0.9 | 4.3 | 0.00 | 0.00 | 0.00 | 86 | 1012.0 |
| 20260506133012 | 77 | 140 | 0.9 | 4.3 | 0.00 | 0.00 | 0.00 | 86 | 1011.9 |
| 20260506132917 | 77 | 141 | 1.7 | 4.3 | 0.00 | 0.00 | 0.00 | 86 | 1011.9 |
| 20260506132831 | 77 | 138 | 1.7 | 4.3 | 0.00 | 0.00 | 0.00 | 86 | 1011.9 |
| 20260506132717 | 77 | 134 | 0.9 | 4.3 | 0.00 | 0.00 | 0.00 | 86 | 1011.9 |
| 20260506132632 | 77 | 135 | 0.9 | 3.5 | 0.00 | 0.00 | 0.00 | 86 | 1011.9 |
| 20260506132534 | 77 | 134 | 0.0 | 3.5 | 0.00 | 0.00 | 0.00 | 86 | 1011.9 |
| 20260506132444 | 77 | 178 | 0.0 | 4.3 | 0.00 | 0.00 | 0.00 | 86 | 1011.9 |
| 20260506132328 | 77 | 178 | 0.9 | 4.3 | 0.00 | 0.00 | 0.00 | 86 | 1011.9 |
| 20260506132232 | 77 | 145 | 0.9 | 4.3 | 0.00 | 0.00 | 0.00 | 86 | 1011.9 |
| 20260506132145 | 77 | 145 | 0.9 | 4.3 | 0.00 | 0.00 | 0.00 | 86 | 1011.9 |
| 20260506132012 | 77 | 146 | 0.0 | 4.3 | 0.00 | 0.00 | 0.00 | 86 | 1011.9 |
| 20260506131926 | 77 | 146 | 0.0 | 4.3 | 0.00 | 0.00 | 0.00 | 86 | 1011.9 |
| 20260506131816 | 77 | 146 | 0.0 | 4.3 | 0.00 | 0.00 | 0.00 | 86 | 1011.8 |
| 20260506131728 | 77 | 146 | 0.9 | 4.3 | 0.00 | 0.00 | 0.00 | 86 | 1011.8 |
| 20260506131624 | 77 | 146 | 0.9 | 4.3 | 0.00 | 0.00 | 0.00 | 86 | 1011.8 |
| 20260506131546 | 76 | 174 | 0.9 | 3.5 | 0.00 | 0.00 | 0.00 | 86 | 1011.8 |
| 20260506131431 | 76 | 174 | 0.0 | 3.5 | 0.00 | 0.00 | 0.00 | 86 | 1011.8 |
| 20260506131318 | 77 | 174 | 0.9 | 3.5 | 0.00 | 0.00 | 0.00 | 86 | 1011.8 |
| 20260506131213 | 76 | 174 | 0.9 | 3.5 | 0.00 | 0.00 | 0.00 | 86 | 1011.8 |
| 20260506131129 | 76 | 136 | 1.7 | 3.5 | 0.00 | 0.00 | 0.00 | 86 | 1011.8 |
| 20260506131030 | 76 | 136 | 1.7 | 7.0 | 0.00 | 0.00 | 0.00 | 86 | 1011.7 |
| 20260506130939 | 76 | 136 | 0.9 | 7.0 | 0.00 | 0.00 | 0.00 | 86 | 1011.7 |
| 20260506130817 | 76 | 142 | 0.0 | 7.0 | 0.00 | 0.00 | 0.00 | 86 | 1011.7 |
| 20260506130537 | 76 | 138 | 0.9 | 7.0 | 0.00 | 0.00 | 0.00 | 86 | 1011.7 |
| 20260506130427 | 76 | 145 | 1.7 | 7.0 | 0.00 | 0.00 | 0.00 | 86 | 1011.7 |
| 20260506130333 | 76 | 167 | 1.7 | 7.0 | 0.00 | 0.00 | 0.00 | 86 | 1011.7 |
| 20260506130219 | 76 | 128 | 1.7 | 7.0 | 0.00 | 0.00 | 0.00 | 86 | 1011.7 |
| 20260506130142 | 76 | 127 | 1.7 | 7.0 | 0.00 | 0.00 | 0.00 | 86 | 1011.7 |
| 20260506130018 | 76 | 158 | 1.7 | 4.3 | 0.00 | 0.00 | 0.00 | 86 | 1011.7 |
| 20260506125923 | 76 | 124 | 1.7 | 4.3 | 0.00 | 0.00 | 0.00 | 86 | 1011.7 |
| 20260506125840 | 76 | 134 | 2.6 | 4.3 | 0.00 | 0.00 | 0.00 | 86 | 1011.7 |
| 20260506125717 | 76 | 143 | 1.7 | 4.3 | 0.00 | 0.00 | 0.00 | 86 | 1011.7 |
| 20260506125627 | 76 | 156 | 0.9 | 5.2 | 0.00 | 0.00 | 0.00 | 86 | 1011.8 |
| 20260506125521 | 76 | 164 | 0.9 | 5.2 | 0.00 | 0.00 | 0.00 | 86 | 1011.8 |
| 20260506125429 | 76 | 174 | 0.9 | 5.2 | 0.00 | 0.00 | 0.00 | 86 | 1011.8 |
| 20260506125318 | 76 | 111 | 0.9 | 5.2 | 0.00 | 0.00 | 0.00 | 86 | 1011.8 |
| 20260506125221 | 76 | 136 | 0.0 | 5.2 | 0.00 | 0.00 | 0.00 | 86 | 1011.8 |
| 20260506125125 | 76 | 136 | 0.9 | 5.2 | 0.00 | 0.00 | 0.00 | 86 | 1011.8 |
| 20260506125027 | 76 | 134 | 0.9 | 5.2 | 0.00 | 0.00 | 0.00 | 86 | 1011.8 |
| 20260506124933 | 76 | 167 | 0.9 | 5.2 | 0.00 | 0.00 | 0.00 | 86 | 1011.7 |
| 20260506124846 | 76 | 167 | 1.7 | 5.2 | 0.00 | 0.00 | 0.00 | 86 | 1011.7 |
| 20260506124714 | 76 | 168 | 1.7 | 5.2 | 0.00 | 0.00 | 0.00 | 86 | 1011.7 |
| 20260506124657 | 76 | 143 | 0.9 | 4.3 | 0.00 | 0.00 | 0.00 | 86 | 1011.7 |
| 20260506124530 | 76 | 139 | 0.9 | 4.3 | 0.00 | 0.00 | 0.00 | 86 | 1011.7 |
| 20260506124417 | 76 | 138 | 1.7 | 4.3 | 0.00 | 0.00 | 0.00 | 86 | 1011.7 |
| 20260506124323 | 76 | 138 | 1.7 | 4.3 | 0.00 | 0.00 | 0.00 | 86 | 1011.7 |
| 20260506124219 | 76 | 148 | 0.9 | 4.3 | 0.00 | 0.00 | 0.00 | 86 | 1011.7 |
| 20260506124136 | 76 | 151 | 1.7 | 4.3 | 0.00 | 0.00 | 0.00 | 86 | 1011.7 |
| 20260506124011 | 76 | 116 | 0.9 | 4.3 | 0.00 | 0.00 | 0.00 | 86 | 1011.7 |
| 20260506123944 | 76 | 129 | 0.9 | 4.3 | 0.00 | 0.00 | 0.00 | 86 | 1011.7 |
| 20260506123856 | 76 | 129 | 0.9 | 4.3 | 0.00 | 0.00 | 0.00 | 86 | 1011.7 |
| 20260506123721 | 76 | 163 | 0.0 | 4.3 | 0.00 | 0.00 | 0.00 | 86 | 1011.7 |
| 20260506123645 | 76 | 163 | 0.9 | 4.3 | 0.00 | 0.00 | 0.00 | 86 | 1011.7 |
| 20260506123511 | 76 | 163 | 0.9 | 5.2 | 0.00 | 0.00 | 0.00 | 86 | 1011.6 |
| 20260506123429 | 76 | 150 | 0.0 | 3.5 | 0.00 | 0.00 | 0.00 | 86 | 1011.6 |
| 20260506123316 | 76 | 150 | 0.9 | 3.5 | 0.00 | 0.00 | 0.00 | 86 | 1011.6 |
| 20260506123212 | 76 | 148 | 0.0 | 3.5 | 0.00 | 0.00 | 0.00 | 86 | 1011.6 |
| 20260506123124 | 76 | 148 | 0.9 | 3.5 | 0.00 | 0.00 | 0.00 | 86 | 1011.6 |
| 20260506123019 | 76 | 149 | 0.9 | 3.5 | 0.00 | 0.00 | 0.00 | 86 | 1011.6 |
| 20260506122935 | 76 | 139 | 0.9 | 3.5 | 0.00 | 0.00 | 0.00 | 86 | 1011.6 |
| 20260506122841 | 76 | 143 | 0.9 | 3.5 | 0.00 | 0.00 | 0.00 | 86 | 1011.6 |
| 20260506122718 | 76 | 143 | 0.9 | 3.5 | 0.00 | 0.00 | 0.00 | 86 | 1011.6 |
| 20260506122651 | 76 | 142 | 0.9 | 3.5 | 0.00 | 0.00 | 0.00 | 86 | 1011.5 |
| 20260506122533 | 76 | 142 | 0.9 | 3.5 | 0.00 | 0.00 | 0.00 | 86 | 1011.5 |
| 20260506122418 | 76 | 138 | 1.7 | 3.5 | 0.00 | 0.00 | 0.00 | 86 | 1011.5 |
| 20260506122324 | 76 | 143 | 1.7 | 3.5 | 0.00 | 0.00 | 0.00 | 86 | 1011.5 |
| 20260506122214 | 76 | 143 | 1.7 | 3.5 | 0.00 | 0.00 | 0.00 | 86 | 1011.5 |
| 20260506122137 | 76 | 144 | 1.7 | 3.5 | 0.00 | 0.00 | 0.00 | 86 | 1011.5 |
| 20260506122050 | 76 | 148 | 0.9 | 4.3 | 0.00 | 0.00 | 0.00 | 86 | 1011.5 |
| 20260506121942 | 76 | 148 | 0.9 | 4.3 | 0.00 | 0.00 | 0.00 | 86 | 1011.5 |
| 20260506121826 | 76 | 155 | 0.9 | 2.6 | 0.00 | 0.00 | 0.00 | 86 | 1011.4 |
| 20260506121712 | 76 | 151 | 0.9 | 2.6 | 0.00 | 0.00 | 0.00 | 86 | 1011.4 |
| 20260506121642 | 76 | 151 | 0.0 | 2.6 | 0.00 | 0.00 | 0.00 | 86 | 1011.4 |
| 20260506121516 | 75 | 153 | 0.0 | 1.7 | 0.00 | 0.00 | 0.00 | 86 | 1011.4 |
| 20260506121449 | 75 | 153 | 0.0 | 1.7 | 0.00 | 0.00 | 0.00 | 86 | 1011.4 |
| 20260506121337 | 75 | 153 | 0.0 | 2.6 | 0.00 | 0.00 | 0.00 | 86 | 1011.4 |
| 20260506121247 | 75 | 153 | 0.0 | 2.6 | 0.00 | 0.00 | 0.00 | 86 | 1011.4 |
| 20260506121209 | 75 | 153 | 0.0 | 2.6 | 0.00 | 0.00 | 0.00 | 86 | 1011.3 |
| 20260506121022 | 75 | 152 | 0.0 | 2.6 | 0.00 | 0.00 | 0.00 | 86 | 1011.3 |
| 20260506120931 | 75 | 152 | 0.9 | 2.6 | 0.00 | 0.00 | 0.00 | 86 | 1011.3 |
| 20260506120844 | 75 | 152 | 0.9 | 2.6 | 0.00 | 0.00 | 0.00 | 86 | 1011.3 |
| 20260506120720 | 75 | 153 | 0.9 | 2.6 | 0.00 | 0.00 | 0.00 | 86 | 1011.3 |
| 20260506120631 | 75 | 153 | 0.9 | 2.6 | 0.00 | 0.00 | 0.00 | 86 | 1011.3 |
| 20260506120527 | 75 | 151 | 0.9 | 2.6 | 0.00 | 0.00 | 0.00 | 86 | 1011.3 |
| 20260506120436 | 75 | 145 | 0.9 | 2.6 | 0.00 | 0.00 | 0.00 | 86 | 1011.3 |
| 20260506120312 | 75 | 145 | 0.0 | 2.6 | 0.00 | 0.00 | 0.00 | 86 | 1011.2 |
| 20260506120218 | 75 | 144 | 0.0 | 2.6 | 0.00 | 0.00 | 0.00 | 86 | 1011.2 |
| 20260506120140 | 75 | 144 | 0.0 | 2.6 | 0.00 | 0.00 | 0.00 | 86 | 1011.2 |
| 20260506120016 | 75 | 144 | 0.0 | 2.6 | 0.00 | 0.00 | 0.00 | 86 | 1011.2 |
| 20260506115922 | 75 | 144 | 0.9 | 2.6 | 0.00 | 0.00 | 0.00 | 86 | 1011.2 |
| 20260506115829 | 75 | 142 | 0.0 | 2.6 | 0.00 | 0.00 | 0.00 | 86 | 1011.2 |
| 20260506115718 | 75 | 142 | 0.0 | 2.6 | 0.00 | 0.00 | 0.00 | 86 | 1011.2 |
| 20260506115639 | 75 | 142 | 0.0 | 2.6 | 0.00 | 0.00 | 0.00 | 86 | 1011.2 |
| 20260506115516 | 75 | 142 | 0.0 | 2.6 | 0.00 | 0.00 | 0.00 | 86 | 1011.2 |
| 20260506115421 | 75 | 142 | 0.0 | 2.6 | 0.00 | 0.00 | 0.00 | 86 | 1011.1 |
| 20260506115334 | 75 | 142 | 0.0 | 2.6 | 0.00 | 0.00 | 0.00 | 86 | 1011.1 |
| 20260506115213 | 75 | 142 | 0.0 | 2.6 | 0.00 | 0.00 | 0.00 | 86 | 1011.0 |
| 20260506115146 | 75 | 142 | 0.9 | 2.6 | 0.00 | 0.00 | 0.00 | 86 | 1011.0 |
| 20260506115040 | 75 | 143 | 0.9 | 2.6 | 0.00 | 0.00 | 0.00 | 86 | 1010.9 |
| 20260506114931 | 75 | 143 | 0.9 | 2.6 | 0.00 | 0.00 | 0.00 | 86 | 1010.9 |
| 20260506114817 | 75 | 143 | 0.9 | 2.6 | 0.00 | 0.00 | 0.00 | 86 | 1010.9 |
| 20260506114713 | 75 | 146 | 0.9 | 2.6 | 0.00 | 0.00 | 0.00 | 86 | 1010.8 |
| 20260506114628 | 75 | 151 | 0.9 | 1.7 | 0.00 | 0.00 | 0.00 | 86 | 1010.8 |
| 20260506114526 | 75 | 151 | 0.0 | 1.7 | 0.00 | 0.00 | 0.00 | 86 | 1010.9 |
| 20260506114412 | 75 | 151 | 0.0 | 1.7 | 0.00 | 0.00 | 0.00 | 86 | 1010.8 |
| 20260506114321 | 75 | 151 | 0.0 | 1.7 | 0.00 | 0.00 | 0.00 | 86 | 1010.8 |
| 20260506114218 | 75 | 150 | 0.0 | 1.7 | 0.00 | 0.00 | 0.00 | 86 | 1010.8 |
| 20260506114149 | 75 | 151 | 0.0 | 1.7 | 0.00 | 0.00 | 0.00 | 86 | 1010.8 |
| 20260506114028 | 75 | 151 | 0.9 | 4.3 | 0.00 | 0.00 | 0.00 | 86 | 1010.8 |
| 20260506113917 | 75 | 153 | 0.0 | 4.3 | 0.00 | 0.00 | 0.00 | 86 | 1010.8 |
| 20260506113849 | 75 | 153 | 0.0 | 4.3 | 0.00 | 0.00 | 0.00 | 86 | 1010.8 |
| 20260506113737 | 75 | 153 | 0.0 | 4.3 | 0.00 | 0.00 | 0.00 | 86 | 1010.8 |
| 20260506113637 | 75 | 153 | 0.9 | 4.3 | 0.00 | 0.00 | 0.00 | 86 | 1010.8 |
| 20260506113532 | 75 | 150 | 0.0 | 4.3 | 0.00 | 0.00 | 0.00 | 86 | 1010.9 |
| 20260506113416 | 75 | 150 | 0.0 | 4.3 | 0.00 | 0.00 | 0.00 | 85 | 1010.8 |
| 20260506113333 | 75 | 152 | 0.9 | 4.3 | 0.00 | 0.00 | 0.00 | 86 | 1010.8 |
| 20260506113218 | 75 | 152 | 1.7 | 4.3 | 0.00 | 0.00 | 0.00 | 86 | 1010.8 |
| 20260506113133 | 75 | 152 | 0.9 | 3.5 | 0.00 | 0.00 | 0.00 | 86 | 1010.8 |
| 20260506113037 | 75 | 155 | 0.0 | 2.6 | 0.00 | 0.00 | 0.00 | 86 | 1010.8 |
| 20260506112921 | 75 | 155 | 0.9 | 2.6 | 0.00 | 0.00 | 0.00 | 85 | 1010.8 |
| 20260506112828 | 75 | 153 | 0.9 | 2.6 | 0.00 | 0.00 | 0.00 | 85 | 1010.9 |
| 20260506112735 | 75 | 154 | 0.9 | 2.6 | 0.00 | 0.00 | 0.00 | 85 | 1010.8 |
| 20260506112640 | 75 | 153 | 0.9 | 2.6 | 0.00 | 0.00 | 0.00 | 85 | 1010.8 |
| 20260506112515 | 75 | 132 | 0.0 | 2.6 | 0.00 | 0.00 | 0.00 | 85 | 1010.8 |
| 20260506112429 | 75 | 132 | 0.0 | 2.6 | 0.00 | 0.00 | 0.00 | 85 | 1010.8 |
| 20260506112314 | 75 | 132 | 0.0 | 2.6 | 0.00 | 0.00 | 0.00 | 85 | 1010.7 |
| 20260506112247 | 75 | 132 | 0.0 | 2.6 | 0.00 | 0.00 | 0.00 | 85 | 1010.7 |
| 20260506112210 | 75 | 132 | 0.9 | 2.6 | 0.00 | 0.00 | 0.00 | 85 | 1010.7 |
| 20260506112028 | 75 | 132 | 0.9 | 2.6 | 0.00 | 0.00 | 0.00 | 85 | 1010.7 |
| 20260506111916 | 75 | 132 | 0.0 | 2.6 | 0.00 | 0.00 | 0.00 | 85 | 1010.7 |
| 20260506111849 | 75 | 132 | 0.0 | 2.6 | 0.00 | 0.00 | 0.00 | 85 | 1010.7 |
| 20260506111713 | 75 | 132 | 0.9 | 2.6 | 0.00 | 0.00 | 0.00 | 85 | 1010.6 |
| 20260506111630 | 75 | 132 | 0.9 | 2.6 | 0.00 | 0.00 | 0.00 | 85 | 1010.6 |
| 20260506111531 | 75 | 132 | 0.9 | 2.6 | 0.00 | 0.00 | 0.00 | 85 | 1010.6 |
| 20260506111422 | 75 | 130 | 0.0 | 2.6 | 0.00 | 0.00 | 0.00 | 85 | 1010.6 |
| 20260506111326 | 75 | 130 | 0.0 | 2.6 | 0.00 | 0.00 | 0.00 | 85 | 1010.6 |
| 20260506111243 | 75 | 130 | 0.9 | 2.6 | 0.00 | 0.00 | 0.00 | 85 | 1010.5 |
| 20260506111154 | 75 | 130 | 0.9 | 2.6 | 0.00 | 0.00 | 0.00 | 85 | 1010.6 |
| 20260506111035 | 75 | 133 | 0.9 | 2.6 | 0.00 | 0.00 | 0.00 | 85 | 1010.6 |
| 20260506110921 | 75 | 132 | 0.0 | 1.7 | 0.00 | 0.00 | 0.00 | 85 | 1010.6 |
| 20260506110831 | 75 | 132 | 0.0 | 1.7 | 0.00 | 0.00 | 0.00 | 85 | 1010.6 |
| 20260506110717 | 75 | 132 | 0.0 | 1.7 | 0.00 | 0.00 | 0.00 | 85 | 1010.6 |
| 20260506110701 | 75 | 132 | 0.0 | 1.7 | 0.00 | 0.00 | 0.00 | 85 | 1010.6 |
| 20260506110517 | 75 | 132 | 0.0 | 1.7 | 0.00 | 0.00 | 0.00 | 85 | 1010.7 |
| 20260506110422 | 75 | 132 | 0.9 | 1.7 | 0.00 | 0.00 | 0.00 | 85 | 1010.7 |
| 20260506110312 | 75 | 132 | 0.9 | 1.7 | 0.00 | 0.00 | 0.00 | 85 | 1010.7 |
| 20260506110227 | 75 | 132 | 0.0 | 1.7 | 0.00 | 0.00 | 0.00 | 85 | 1010.7 |
| 20260506110210 | 75 | 132 | 0.9 | 1.7 | 0.00 | 0.00 | 0.00 | 85 | 1010.8 |
| 20260506110024 | 75 | 132 | 0.9 | 1.7 | 0.00 | 0.00 | 0.00 | 85 | 1010.8 |
| 20260506105930 | 75 | 132 | 0.9 | 3.5 | 0.00 | 0.00 | 0.00 | 85 | 1010.8 |
| 20260506105816 | 75 | 129 | 0.9 | 3.5 | 0.00 | 0.00 | 0.00 | 85 | 1010.8 |
| 20260506105722 | 75 | 129 | 0.9 | 3.5 | 0.00 | 0.00 | 0.00 | 85 | 1010.8 |
| 20260506105626 | 75 | 129 | 0.0 | 3.5 | 0.00 | 0.00 | 0.00 | 85 | 1010.8 |
| 20260506105528 | 75 | 129 | 0.0 | 3.5 | 0.00 | 0.00 | 0.00 | 85 | 1010.8 |
| 20260506105413 | 75 | 129 | 0.0 | 3.5 | 0.00 | 0.00 | 0.00 | 85 | 1010.8 |
| 20260506105320 | 75 | 129 | 0.9 | 3.5 | 0.00 | 0.00 | 0.00 | 85 | 1010.8 |
| 20260506105243 | 75 | 129 | 0.9 | 3.5 | 0.00 | 0.00 | 0.00 | 85 | 1010.7 |
| 20260506105130 | 75 | 129 | 0.9 | 3.5 | 0.00 | 0.00 | 0.00 | 85 | 1010.7 |
| 20260506105031 | 75 | 134 | 0.0 | 3.5 | 0.00 | 0.00 | 0.00 | 85 | 1010.6 |
| 20260506104918 | 75 | 134 | 0.0 | 3.5 | 0.00 | 0.00 | 0.00 | 85 | 1010.6 |
| 20260506104844 | 75 | 128 | 0.0 | 3.5 | 0.00 | 0.00 | 0.00 | 85 | 1010.6 |
| 20260506104737 | 75 | 128 | 0.9 | 3.5 | 0.00 | 0.00 | 0.00 | 85 | 1010.6 |
| 20260506104630 | 75 | 128 | 0.9 | 3.5 | 0.00 | 0.00 | 0.00 | 85 | 1010.6 |
| 20260506104532 | 75 | 128 | 1.7 | 3.5 | 0.00 | 0.00 | 0.00 | 85 | 1010.7 |
| 20260506104443 | 75 | 128 | 0.9 | 3.5 | 0.00 | 0.00 | 0.00 | 85 | 1010.6 |
| 20260506104328 | 75 | 123 | 0.0 | 2.6 | 0.00 | 0.00 | 0.00 | 85 | 1010.7 |
| 20260506104223 | 75 | 163 | 0.0 | 2.6 | 0.00 | 0.00 | 0.00 | 85 | 1010.7 |
| 20260506104137 | 75 | 163 | 0.0 | 2.6 | 0.00 | 0.00 | 0.00 | 85 | 1010.7 |
| 20260506104012 | 75 | 163 | 0.0 | 2.6 | 0.00 | 0.00 | 0.00 | 85 | 1010.8 |
| 20260506103929 | 75 | 163 | 0.9 | 3.5 | 0.00 | 0.00 | 0.00 | 85 | 1010.8 |
| 20260506103816 | 75 | 148 | 0.0 | 3.5 | 0.00 | 0.00 | 0.00 | 85 | 1010.8 |
| 20260506103712 | 75 | 148 | 0.9 | 3.5 | 0.00 | 0.00 | 0.00 | 85 | 1010.8 |
| 20260506103644 | 75 | 148 | 0.9 | 3.5 | 0.00 | 0.00 | 0.00 | 85 | 1010.8 |
| 20260506103518 | 75 | 148 | 0.9 | 3.5 | 0.00 | 0.00 | 0.00 | 85 | 1010.8 |
| 20260506103423 | 75 | 148 | 0.0 | 3.5 | 0.00 | 0.00 | 0.00 | 85 | 1010.7 |
| 20260506103340 | 75 | 148 | 0.0 | 3.5 | 0.00 | 0.00 | 0.00 | 85 | 1010.7 |
| 20260506103216 | 75 | 148 | 0.9 | 3.5 | 0.00 | 0.00 | 0.00 | 85 | 1010.8 |
| 20260506103148 | 75 | 148 | 0.9 | 3.5 | 0.00 | 0.00 | 0.00 | 85 | 1010.7 |
| 20260506103023 | 75 | 148 | 0.9 | 3.5 | 0.00 | 0.00 | 0.00 | 85 | 1010.7 |
| 20260506102930 | 75 | 146 | 0.0 | 3.5 | 0.00 | 0.00 | 0.00 | 85 | 1010.7 |
| 20260506102816 | 75 | 146 | 0.0 | 2.6 | 0.00 | 0.00 | 0.00 | 85 | 1010.7 |
| 20260506102717 | 75 | 146 | 0.0 | 2.6 | 0.00 | 0.00 | 0.00 | 85 | 1010.8 |
| 20260506102628 | 75 | 146 | 0.0 | 2.6 | 0.00 | 0.00 | 0.00 | 85 | 1010.8 |
| 20260506102522 | 75 | 146 | 0.0 | 2.6 | 0.00 | 0.00 | 0.00 | 85 | 1010.8 |
| 20260506102435 | 75 | 146 | 0.0 | 2.6 | 0.00 | 0.00 | 0.00 | 85 | 1010.8 |
| 20260506102342 | 74 | 146 | 0.9 | 2.6 | 0.00 | 0.00 | 0.00 | 85 | 1010.8 |
| 20260506102222 | 74 | 146 | 0.9 | 2.6 | 0.00 | 0.00 | 0.00 | 85 | 1010.8 |
| 20260506102132 | 74 | 146 | 0.0 | 0.9 | 0.00 | 0.00 | 0.00 | 85 | 1010.7 |
| 20260506102028 | 74 | 146 | 0.0 | 0.9 | 0.00 | 0.00 | 0.00 | 85 | 1010.8 |
| 20260506101913 | 74 | 146 | 0.0 | 0.9 | 0.00 | 0.00 | 0.00 | 85 | 1010.7 |
| 20260506101827 | 74 | 146 | 0.0 | 0.9 | 0.00 | 0.00 | 0.00 | 85 | 1010.7 |
| 20260506101712 | 74 | 146 | 0.0 | 0.9 | 0.00 | 0.00 | 0.00 | 85 | 1010.7 |
| 20260506101640 | 74 | 146 | 0.0 | 0.9 | 0.00 | 0.00 | 0.00 | 85 | 1010.7 |
| 20260506101535 | 74 | 146 | 0.0 | 0.9 | 0.00 | 0.00 | 0.00 | 85 | 1010.7 |
| 20260506101421 | 74 | 146 | 0.0 | 0.9 | 0.00 | 0.00 | 0.00 | 85 | 1010.7 |
| 20260506101335 | 74 | 146 | 0.0 | 0.9 | 0.00 | 0.00 | 0.00 | 85 | 1010.7 |
| 20260506101240 | 74 | 146 | 0.0 | 0.9 | 0.00 | 0.00 | 0.00 | 85 | 1010.7 |
| 20260506101141 | 74 | 146 | 0.0 | 0.9 | 0.00 | 0.00 | 0.00 | 85 | 1010.7 |
| 20260506101019 | 74 | 146 | 0.0 | 1.7 | 0.00 | 0.00 | 0.00 | 85 | 1010.7 |
| 20260506100925 | 74 | 146 | 0.0 | 1.7 | 0.00 | 0.00 | 0.00 | 85 | 1010.7 |
| 20260506100838 | 74 | 146 | 0.0 | 1.7 | 0.00 | 0.00 | 0.00 | 85 | 1010.7 |
| 20260506100715 | 74 | 146 | 0.0 | 1.7 | 0.00 | 0.00 | 0.00 | 85 | 1010.7 |
| 20260506100640 | 74 | 146 | 0.0 | 1.7 | 0.00 | 0.00 | 0.00 | 85 | 1010.7 |
| 20260506100516 | 74 | 146 | 0.0 | 1.7 | 0.00 | 0.00 | 0.00 | 85 | 1010.7 |
| 20260506100413 | 74 | 146 | 0.0 | 2.6 | 0.00 | 0.00 | 0.00 | 85 | 1010.7 |
| 20260506100320 | 74 | 146 | 0.0 | 2.6 | 0.00 | 0.00 | 0.00 | 85 | 1010.7 |
| 20260506100217 | 74 | 146 | 0.0 | 2.6 | 0.00 | 0.00 | 0.00 | 85 | 1010.7 |
| 20260506100128 | 74 | 146 | 0.0 | 2.6 | 0.00 | 0.00 | 0.00 | 85 | 1010.8 |
| 20260506100023 | 74 | 146 | 0.0 | 2.6 | 0.00 | 0.00 | 0.00 | 85 | 1010.7 |
| 20260506095912 | 74 | 146 | 0.0 | 2.6 | 0.00 | 0.00 | 0.00 | 85 | 1010.8 |
| 20260506095819 | 74 | 146 | 0.0 | 2.6 | 0.00 | 0.00 | 0.00 | 85 | 1010.8 |
| 20260506095722 | 74 | 146 | 0.9 | 2.6 | 0.00 | 0.00 | 0.00 | 85 | 1010.8 |
| 20260506095654 | 74 | 146 | 0.9 | 2.6 | 0.00 | 0.00 | 0.00 | 85 | 1010.8 |
| 20260506095528 | 74 | 146 | 0.0 | 1.7 | 0.00 | 0.00 | 0.00 | 85 | 1010.8 |
| 20260506095413 | 74 | 144 | 0.0 | 1.7 | 0.00 | 0.00 | 0.00 | 85 | 1010.8 |
| 20260506095325 | 74 | 144 | 0.0 | 1.7 | 0.00 | 0.00 | 0.00 | 85 | 1010.8 |
| 20260506095220 | 74 | 144 | 0.0 | 1.7 | 0.00 | 0.00 | 0.00 | 85 | 1010.8 |
| 20260506095132 | 74 | 144 | 0.0 | 1.7 | 0.00 | 0.00 | 0.00 | 85 | 1010.8 |
| 20260506095026 | 74 | 144 | 0.0 | 1.7 | 0.00 | 0.00 | 0.00 | 85 | 1010.8 |
| 20260506094912 | 74 | 144 | 0.0 | 1.7 | 0.00 | 0.00 | 0.00 | 85 | 1010.7 |
| 20260506094829 | 74 | 144 | 0.0 | 1.7 | 0.00 | 0.00 | 0.00 | 85 | 1010.7 |
| 20260506094717 | 74 | 143 | 0.0 | 0.9 | 0.00 | 0.00 | 0.00 | 85 | 1010.7 |
| 20260506094639 | 74 | 143 | 0.0 | 0.9 | 0.00 | 0.00 | 0.00 | 85 | 1010.8 |
| 20260506094515 | 74 | 143 | 0.0 | 0.9 | 0.00 | 0.00 | 0.00 | 85 | 1010.7 |
| 20260506094421 | 74 | 143 | 0.0 | 0.9 | 0.00 | 0.00 | 0.00 | 85 | 1010.8 |
| 20260506094327 | 74 | 143 | 0.0 | 0.9 | 0.00 | 0.00 | 0.00 | 85 | 1010.8 |
| 20260506094238 | 74 | 143 | 0.0 | 1.7 | 0.00 | 0.00 | 0.00 | 85 | 1010.8 |
| 20260506094140 | 74 | 143 | 0.0 | 1.7 | 0.00 | 0.00 | 0.00 | 85 | 1010.8 |
| 20260506094016 | 74 | 143 | 0.0 | 1.7 | 0.00 | 0.00 | 0.00 | 85 | 1010.8 |
| 20260506093929 | 74 | 143 | 0.0 | 1.7 | 0.00 | 0.00 | 0.00 | 85 | 1010.8 |
| 20260506093813 | 74 | 143 | 0.0 | 1.7 | 0.00 | 0.00 | 0.00 | 85 | 1010.8 |
| 20260506093716 | 74 | 143 | 0.0 | 1.7 | 0.00 | 0.00 | 0.00 | 85 | 1010.8 |
| 20260506093627 | 74 | 143 | 0.0 | 1.7 | 0.00 | 0.00 | 0.00 | 85 | 1010.8 |
| 20260506093522 | 74 | 143 | 0.0 | 1.7 | 0.00 | 0.00 | 0.00 | 85 | 1010.8 |
| 20260506093435 | 74 | 143 | 0.0 | 1.7 | 0.00 | 0.00 | 0.00 | 85 | 1010.8 |
| 20260506093321 | 74 | 143 | 0.0 | 1.7 | 0.00 | 0.00 | 0.00 | 85 | 1010.7 |
| 20260506093217 | 74 | 143 | 0.0 | 1.7 | 0.00 | 0.00 | 0.00 | 85 | 1010.7 |
| 20260506093133 | 74 | 143 | 0.0 | 1.7 | 0.00 | 0.00 | 0.00 | 85 | 1010.7 |
| 20260506093028 | 74 | 143 | 0.0 | 1.7 | 0.00 | 0.00 | 0.00 | 85 | 1010.7 |
| 20260506092912 | 74 | 143 | 0.0 | 1.7 | 0.00 | 0.00 | 0.00 | 85 | 1010.7 |
| 20260506092848 | 74 | 143 | 0.0 | 1.7 | 0.00 | 0.00 | 0.00 | 85 | 1010.7 |
| 20260506092722 | 74 | 143 | 0.0 | 1.7 | 0.00 | 0.00 | 0.00 | 85 | 1010.7 |
| 20260506092655 | 74 | 143 | 0.0 | 1.7 | 0.00 | 0.00 | 0.00 | 85 | 1010.7 |
| 20260506092511 | 74 | 141 | 0.0 | 1.7 | 0.00 | 0.00 | 0.00 | 85 | 1010.7 |
| 20260506092419 | 74 | 141 | 0.0 | 1.7 | 0.00 | 0.00 | 0.00 | 85 | 1010.7 |
| 20260506092326 | 74 | 141 | 0.0 | 1.7 | 0.00 | 0.00 | 0.00 | 85 | 1010.7 |
| 20260506092211 | 74 | 141 | 0.0 | 1.7 | 0.00 | 0.00 | 0.00 | 85 | 1010.7 |
| 20260506092156 | 74 | 141 | 0.0 | 1.7 | 0.00 | 0.00 | 0.00 | 85 | 1010.7 |
| 20260506092038 | 74 | 141 | 0.0 | 2.6 | 0.00 | 0.00 | 0.00 | 85 | 1010.7 |
| 20260506091928 | 74 | 141 | 0.0 | 2.6 | 0.00 | 0.00 | 0.00 | 85 | 1010.7 |
| 20260506091813 | 74 | 140 | 0.0 | 2.6 | 0.00 | 0.00 | 0.00 | 85 | 1010.7 |
| 20260506091719 | 74 | 140 | 0.0 | 2.6 | 0.00 | 0.00 | 0.00 | 85 | 1010.7 |
| 20260506091702 | 74 | 140 | 0.0 | 2.6 | 0.00 | 0.00 | 0.00 | 85 | 1010.7 |
| 20260506091542 | 74 | 140 | 0.0 | 2.6 | 0.00 | 0.00 | 0.00 | 85 | 1010.7 |
| 20260506091449 | 74 | 140 | 0.0 | 2.6 | 0.00 | 0.00 | 0.00 | 85 | 1010.7 |
| 20260506091340 | 74 | 140 | 0.0 | 2.6 | 0.00 | 0.00 | 0.00 | 85 | 1010.6 |
| 20260506091303 | 74 | 140 | 0.9 | 2.6 | 0.00 | 0.00 | 0.00 | 85 | 1010.7 |
| 20260506091146 | 74 | 139 | 0.9 | 2.6 | 0.00 | 0.00 | 0.00 | 85 | 1010.7 |
| 20260506091107 | 74 | 140 | 0.0 | 2.6 | 0.00 | 0.00 | 0.00 | 85 | 1010.6 |
| 20260506090951 | 74 | 140 | 0.0 | 2.6 | 0.00 | 0.00 | 0.00 | 85 | 1010.6 |
| 20260506090844 | 74 | 140 | 0.0 | 2.6 | 0.00 | 0.00 | 0.00 | 85 | 1010.6 |
| 20260506090738 | 74 | 140 | 0.9 | 2.6 | 0.00 | 0.00 | 0.00 | 85 | 1010.6 |
| 20260506090710 | 74 | 140 | 0.0 | 2.6 | 0.00 | 0.00 | 0.00 | 85 | 1010.6 |
| 20260506090555 | 74 | 141 | 0.0 | 1.7 | 0.00 | 0.00 | 0.00 | 85 | 1010.6 |
| 20260506090439 | 74 | 141 | 0.0 | 1.7 | 0.00 | 0.00 | 0.00 | 85 | 1010.6 |
| 20260506090413 | 74 | 141 | 0.9 | 1.7 | 0.00 | 0.00 | 0.00 | 85 | 1010.7 |
| 20260506090238 | 74 | 140 | 0.0 | 1.7 | 0.00 | 0.00 | 0.00 | 85 | 1010.6 |
| 20260506090155 | 74 | 140 | 0.0 | 1.7 | 0.00 | 0.00 | 0.00 | 85 | 1010.7 |
| 20260506090056 | 74 | 140 | 0.0 | 1.7 | 0.00 | 0.00 | 0.00 | 85 | 1010.7 |
| 20260506085946 | 74 | 140 | 0.9 | 1.7 | 0.00 | 0.00 | 0.00 | 85 | 1010.7 |
| 20260506085833 | 74 | 140 | 0.0 | 1.7 | 0.00 | 0.00 | 0.00 | 85 | 1010.7 |
| 20260506085738 | 74 | 140 | 0.0 | 1.7 | 0.00 | 0.00 | 0.00 | 85 | 1010.7 |
| 20260506085703 | 74 | 140 | 0.0 | 2.6 | 0.00 | 0.00 | 0.00 | 85 | 1010.7 |
| 20260506085537 | 74 | 140 | 0.0 | 2.6 | 0.00 | 0.00 | 0.00 | 85 | 1010.7 |
| 20260506085511 | 74 | 140 | 0.0 | 2.6 | 0.00 | 0.00 | 0.00 | 85 | 1010.7 |
| 20260506085339 | 74 | 140 | 0.0 | 2.6 | 0.00 | 0.00 | 0.00 | 85 | 1010.7 |
| 20260506085235 | 74 | 140 | 0.0 | 2.6 | 0.00 | 0.00 | 0.00 | 85 | 1010.7 |
| 20260506085207 | 74 | 140 | 0.0 | 2.6 | 0.00 | 0.00 | 0.00 | 85 | 1010.7 |
| 20260506085042 | 74 | 140 | 0.9 | 2.6 | 0.00 | 0.00 | 0.00 | 85 | 1010.7 |
| 20260506084948 | 74 | 140 | 0.9 | 2.6 | 0.00 | 0.00 | 0.00 | 85 | 1010.7 |
| 20260506084840 | 74 | 137 | 0.9 | 2.6 | 0.00 | 0.00 | 0.00 | 84 | 1010.7 |
| 20260506084736 | 74 | 137 | 0.9 | 2.6 | 0.00 | 0.00 | 0.00 | 84 | 1010.6 |
| 20260506084647 | 74 | 137 | 0.9 | 2.6 | 0.00 | 0.00 | 0.00 | 84 | 1010.6 |
| 20260506084541 | 74 | 136 | 0.0 | 1.7 | 0.00 | 0.00 | 0.00 | 84 | 1010.7 |
| 20260506084453 | 74 | 137 | 0.0 | 1.7 | 0.00 | 0.00 | 0.00 | 84 | 1010.7 |
| 20260506084345 | 74 | 137 | 0.0 | 0.9 | 0.00 | 0.00 | 0.00 | 84 | 1010.7 |
| 20260506084242 | 74 | 136 | 0.0 | 0.9 | 0.00 | 0.00 | 0.00 | 84 | 1010.7 |
| 20260506084154 | 74 | 136 | 0.0 | 0.9 | 0.00 | 0.00 | 0.00 | 84 | 1010.7 |
| 20260506084048 | 74 | 136 | 0.0 | 0.9 | 0.00 | 0.00 | 0.00 | 84 | 1010.7 |
| 20260506083935 | 74 | 136 | 0.0 | 0.9 | 0.00 | 0.00 | 0.00 | 84 | 1010.7 |
| 20260506083840 | 74 | 136 | 0.0 | 0.9 | 0.00 | 0.00 | 0.00 | 84 | 1010.7 |
| 20260506083757 | 74 | 136 | 0.0 | 0.9 | 0.00 | 0.00 | 0.00 | 84 | 1010.7 |
| 20260506083720 | 74 | 136 | 0.0 | 0.9 | 0.00 | 0.00 | 0.00 | 84 | 1010.7 |
| 20260506083535 | 74 | 136 | 0.0 | 0.9 | 0.00 | 0.00 | 0.00 | 84 | 1010.7 |
| 20260506083441 | 74 | 136 | 0.0 | 0.9 | 0.00 | 0.00 | 0.00 | 84 | 1010.7 |
| 20260506083414 | 74 | 136 | 0.0 | 0.9 | 0.00 | 0.00 | 0.00 | 84 | 1010.7 |
| 20260506083238 | 74 | 136 | 0.0 | 1.7 | 0.00 | 0.00 | 0.00 | 84 | 1010.7 |
| 20260506083201 | 74 | 136 | 0.0 | 1.7 | 0.00 | 0.00 | 0.00 | 84 | 1010.7 |
| 20260506083042 | 74 | 136 | 0.0 | 1.7 | 0.00 | 0.00 | 0.00 | 84 | 1010.7 |
| 20260506083008 | 74 | 136 | 0.0 | 1.7 | 0.00 | 0.00 | 0.00 | 84 | 1010.8 |
| 20260506082832 | 74 | 136 | 0.0 | 1.7 | 0.00 | 0.00 | 0.00 | 84 | 1010.8 |
| 20260506082735 | 74 | 136 | 0.0 | 1.7 | 0.00 | 0.00 | 0.00 | 84 | 1010.8 |
| 20260506082700 | 74 | 136 | 0.0 | 1.7 | 0.00 | 0.00 | 0.00 | 84 | 1010.9 |
| 20260506082546 | 74 | 135 | 0.0 | 1.7 | 0.00 | 0.00 | 0.00 | 84 | 1010.9 |
| 20260506082433 | 74 | 134 | 0.0 | 1.7 | 0.00 | 0.00 | 0.00 | 84 | 1010.9 |
| 20260506082339 | 74 | 133 | 0.0 | 1.7 | 0.00 | 0.00 | 0.00 | 84 | 1010.9 |
| 20260506082235 | 74 | 133 | 0.0 | 1.7 | 0.00 | 0.00 | 0.00 | 84 | 1010.9 |
| 20260506082146 | 74 | 133 | 0.0 | 1.7 | 0.00 | 0.00 | 0.00 | 84 | 1010.9 |
| 20260506082041 | 74 | 133 | 0.0 | 1.7 | 0.00 | 0.00 | 0.00 | 84 | 1011.0 |
| 20260506081951 | 74 | 133 | 0.0 | 1.7 | 0.00 | 0.00 | 0.00 | 84 | 1010.9 |
| 20260506081845 | 74 | 133 | 0.0 | 1.7 | 0.00 | 0.00 | 0.00 | 84 | 1010.9 |
| 20260506081741 | 74 | 132 | 0.9 | 1.7 | 0.00 | 0.00 | 0.00 | 84 | 1010.8 |
| 20260506081647 | 74 | 132 | 0.0 | 1.7 | 0.00 | 0.00 | 0.00 | 84 | 1010.9 |
| 20260506081548 | 74 | 132 | 0.0 | 1.7 | 0.00 | 0.00 | 0.00 | 84 | 1010.9 |
| 20260506081438 | 74 | 132 | 0.0 | 1.7 | 0.00 | 0.00 | 0.00 | 84 | 1011.0 |
| 20260506081344 | 74 | 132 | 0.0 | 1.7 | 0.00 | 0.00 | 0.00 | 84 | 1010.9 |
| 20260506081236 | 74 | 132 | 0.0 | 0.9 | 0.00 | 0.00 | 0.00 | 84 | 1010.9 |
| 20260506081151 | 74 | 132 | 0.0 | 0.9 | 0.00 | 0.00 | 0.00 | 84 | 1010.9 |
| 20260506081053 | 74 | 132 | 0.0 | 0.9 | 0.00 | 0.00 | 0.00 | 84 | 1010.9 |
| 20260506080958 | 74 | 132 | 0.0 | 0.9 | 0.00 | 0.00 | 0.00 | 84 | 1011.0 |
| 20260506080847 | 74 | 132 | 0.0 | 0.9 | 0.00 | 0.00 | 0.00 | 84 | 1011.0 |
| 20260506080733 | 74 | 132 | 0.0 | 0.9 | 0.00 | 0.00 | 0.00 | 84 | 1011.0 |
| 20260506080657 | 74 | 132 | 0.0 | 0.9 | 0.00 | 0.00 | 0.00 | 84 | 1011.0 |
| 20260506080532 | 74 | 132 | 0.0 | 0.9 | 0.00 | 0.00 | 0.00 | 84 | 1011.0 |
| 20260506080437 | 74 | 132 | 0.0 | 0.9 | 0.00 | 0.00 | 0.00 | 84 | 1011.0 |
| 20260506080350 | 74 | 131 | 0.0 | 0.9 | 0.00 | 0.00 | 0.00 | 84 | 1011.0 |
| 20260506080231 | 74 | 131 | 0.0 | 2.6 | 0.00 | 0.00 | 0.00 | 84 | 1011.0 |
| 20260506080156 | 74 | 131 | 0.0 | 2.6 | 0.00 | 0.00 | 0.00 | 84 | 1011.0 |
| 20260506073437 | 74 | 182 | 0.0 | 2.6 | 0.00 | 0.00 | 0.00 | 84 | 1011.1 |
| 20260506073343 | 74 | 214 | 0.0 | 2.6 | 0.00 | 0.00 | 0.00 | 84 | 1011.1 |
| 20260506073256 | 74 | 214 | 0.0 | 2.6 | 0.00 | 0.00 | 0.00 | 84 | 1011.1 |
| 20260506073151 | 74 | 223 | 0.0 | 2.6 | 0.00 | 0.00 | 0.00 | 84 | 1011.1 |
| 20260506073053 | 74 | 223 | 0.0 | 2.6 | 0.00 | 0.00 | 0.00 | 84 | 1011.2 |
| 20260506072943 | 74 | 123 | 0.0 | 1.7 | 0.00 | 0.00 | 0.00 | 84 | 1011.2 |
| 20260506072849 | 74 | 123 | 0.0 | 1.7 | 0.00 | 0.00 | 0.00 | 84 | 1011.2 |
| 20260506072736 | 74 | 123 | 0.0 | 1.7 | 0.00 | 0.00 | 0.00 | 84 | 1011.2 |
| 20260506072658 | 74 | 123 | 0.0 | 1.7 | 0.00 | 0.00 | 0.00 | 84 | 1011.2 |
| 20260506072534 | 74 | 123 | 0.0 | 0.9 | 0.00 | 0.00 | 0.00 | 84 | 1011.2 |
| 20260506072443 | 74 | 123 | 0.0 | 0.9 | 0.00 | 0.00 | 0.00 | 84 | 1011.2 |
| 20260506072416 | 74 | 123 | 0.0 | 0.9 | 0.00 | 0.00 | 0.00 | 84 | 1011.1 |
| 20260506072241 | 74 | 123 | 0.0 | 0.9 | 0.00 | 0.00 | 0.00 | 84 | 1011.2 |
| 20260506072205 | 74 | 123 | 0.0 | 0.9 | 0.00 | 0.00 | 0.00 | 84 | 1011.2 |
| 20260506072039 | 74 | 123 | 0.0 | 0.9 | 0.00 | 0.00 | 0.00 | 84 | 1011.2 |
| 20260506071944 | 74 | 123 | 0.0 | 0.9 | 0.00 | 0.00 | 0.00 | 84 | 1011.2 |
| 20260506071856 | 74 | 123 | 0.0 | 0.9 | 0.00 | 0.00 | 0.00 | 84 | 1011.2 |
| 20260506071736 | 74 | 123 | 0.0 | 0.9 | 0.00 | 0.00 | 0.00 | 84 | 1011.2 |
| 20260506071648 | 74 | 123 | 0.0 | 0.9 | 0.00 | 0.00 | 0.00 | 84 | 1011.2 |
| 20260506071544 | 74 | 123 | 0.0 | 0.9 | 0.00 | 0.00 | 0.00 | 84 | 1011.2 |
| 20260506071450 | 74 | 123 | 0.0 | 1.7 | 0.00 | 0.00 | 0.00 | 84 | 1011.1 |
| 20260506071400 | 74 | 123 | 0.0 | 1.7 | 0.00 | 0.00 | 0.00 | 84 | 1011.1 |
| 20260506071235 | 74 | 123 | 0.0 | 1.7 | 0.00 | 0.00 | 0.00 | 84 | 1011.1 |
| 20260506071154 | 74 | 123 | 0.0 | 1.7 | 0.00 | 0.00 | 0.00 | 84 | 1011.1 |
| 20260506071109 | 74 | 123 | 0.0 | 1.7 | 0.00 | 0.00 | 0.00 | 84 | 1011.1 |
| 20260506070933 | 74 | 123 | 0.0 | 1.7 | 0.00 | 0.00 | 0.00 | 84 | 1011.1 |
| 20260506070846 | 74 | 123 | 0.0 | 1.7 | 0.00 | 0.00 | 0.00 | 84 | 1011.1 |
| 20260506070742 | 74 | 123 | 0.0 | 1.7 | 0.00 | 0.00 | 0.00 | 84 | 1011.1 |
| 20260506070716 | 74 | 123 | 0.0 | 1.7 | 0.00 | 0.00 | 0.00 | 84 | 1011.1 |
| 20260506070535 | 74 | 123 | 0.0 | 0.0 | 0.00 | 0.00 | 0.00 | 84 | 1011.1 |
| 20260506070442 | 74 | 123 | 0.0 | 1.7 | 0.00 | 0.00 | 0.00 | 84 | 1011.1 |
| 20260506070355 | 74 | 123 | 0.0 | 1.7 | 0.00 | 0.00 | 0.00 | 84 | 1011.1 |
| 20260506070300 | 74 | 123 | 0.0 | 3.5 | 0.00 | 0.00 | 0.00 | 84 | 1011.1 |
| 20260506070222 | 74 | 123 | 0.0 | 3.5 | 0.00 | 0.00 | 0.00 | 84 | 1011.1 |
| 20260506062453 | 74 | 133 | 0.9 | 3.5 | 0.00 | 0.00 | 0.00 | 83 | 1011.1 |
| 20260506062339 | 74 | 137 | 0.9 | 3.5 | 0.00 | 0.00 | 0.00 | 83 | 1011.0 |
| 20260506062239 | 74 | 138 | 0.0 | 2.6 | 0.00 | 0.00 | 0.00 | 83 | 1011.0 |
| 20260506062151 | 74 | 138 | 0.9 | 2.6 | 0.00 | 0.00 | 0.00 | 83 | 1011.1 |
| 20260506062047 | 74 | 138 | 0.9 | 2.6 | 0.00 | 0.00 | 0.00 | 83 | 1011.1 |
| 20260506061932 | 74 | 138 | 0.9 | 2.6 | 0.00 | 0.00 | 0.00 | 83 | 1011.1 |
| 20260506061837 | 74 | 138 | 0.9 | 2.6 | 0.00 | 0.00 | 0.00 | 83 | 1011.1 |
| 20260506061800 | 74 | 139 | 0.0 | 2.6 | 0.00 | 0.00 | 0.00 | 83 | 1011.2 |
| 20260506061654 | 74 | 139 | 0.9 | 2.6 | 0.00 | 0.00 | 0.00 | 83 | 1011.2 |
| 20260506061548 | 74 | 138 | 0.9 | 2.6 | 0.00 | 0.00 | 0.00 | 83 | 1011.2 |
| 20260506061453 | 74 | 138 | 0.9 | 2.6 | 0.00 | 0.00 | 0.00 | 83 | 1011.2 |
| 20260506061345 | 74 | 138 | 0.9 | 2.6 | 0.00 | 0.00 | 0.00 | 83 | 1011.3 |
| 20260506061241 | 74 | 140 | 0.9 | 2.6 | 0.00 | 0.00 | 0.00 | 83 | 1011.3 |
| 20260506061154 | 74 | 139 | 0.9 | 2.6 | 0.00 | 0.00 | 0.00 | 83 | 1011.4 |
| 20260506061033 | 74 | 136 | 0.9 | 2.6 | 0.00 | 0.00 | 0.00 | 83 | 1011.4 |
| 20260506060938 | 74 | 134 | 0.0 | 2.6 | 0.00 | 0.00 | 0.00 | 83 | 1011.4 |
| 20260506060845 | 74 | 148 | 0.0 | 0.9 | 0.00 | 0.00 | 0.00 | 83 | 1011.4 |
| 20260506060731 | 74 | 148 | 0.0 | 0.9 | 0.00 | 0.00 | 0.00 | 83 | 1011.4 |
| 20260506060655 | 74 | 148 | 0.0 | 1.7 | 0.00 | 0.00 | 0.00 | 83 | 1011.4 |
| 20260506060534 | 74 | 148 | 0.0 | 1.7 | 0.00 | 0.00 | 0.00 | 83 | 1011.4 |
| 20260506060439 | 74 | 147 | 0.0 | 1.7 | 0.00 | 0.00 | 0.00 | 83 | 1011.4 |
| 20260506060352 | 74 | 145 | 0.0 | 1.7 | 0.00 | 0.00 | 0.00 | 83 | 1011.4 |
| 20260506060238 | 74 | 145 | 0.0 | 1.7 | 0.00 | 0.00 | 0.00 | 83 | 1011.4 |
| 20260506060200 | 74 | 145 | 0.0 | 1.7 | 0.00 | 0.00 | 0.00 | 83 | 1011.4 |
| 20260506051339 | 74 | 136 | 0.0 | 0.0 | 0.00 | 0.00 | 0.00 | 81 | 1011.6 |
| 20260506051236 | 74 | 136 | 0.0 | 0.0 | 0.00 | 0.00 | 0.00 | 81 | 1011.5 |
| 20260506051147 | 74 | 136 | 0.0 | 0.0 | 0.00 | 0.00 | 0.00 | 81 | 1011.5 |
| 20260506051041 | 74 | 136 | 0.0 | 0.0 | 0.00 | 0.00 | 0.00 | 81 | 1011.5 |
| 20260506050955 | 74 | 136 | 0.0 | 0.0 | 0.00 | 0.00 | 0.00 | 81 | 1011.5 |
| 20260506050841 | 74 | 136 | 0.0 | 0.0 | 0.00 | 0.00 | 0.00 | 81 | 1011.5 |
| 20260506050740 | 74 | 136 | 0.0 | 0.0 | 0.00 | 0.00 | 0.00 | 81 | 1011.5 |
| 20260506050655 | 74 | 136 | 0.0 | 0.0 | 0.00 | 0.00 | 0.00 | 81 | 1011.5 |
| 20260506050609 | 74 | 136 | 0.0 | 0.0 | 0.00 | 0.00 | 0.00 | 81 | 1011.5 |
| 20260506050439 | 74 | 136 | 0.0 | 0.0 | 0.00 | 0.00 | 0.00 | 81 | 1011.5 |
| 20260506050345 | 74 | 136 | 0.0 | 0.0 | 0.00 | 0.00 | 0.00 | 81 | 1011.5 |
| 20260506050230 | 74 | 136 | 0.0 | 0.0 | 0.00 | 0.00 | 0.00 | 81 | 1011.5 |
| 20260506050158 | 74 | 136 | 0.0 | 0.0 | 0.00 | 0.00 | 0.00 | 81 | 1011.5 |
| 20260506045051 | 74 | 136 | 0.0 | 3.5 | 0.00 | 0.00 | 0.00 | 81 | 1011.5 |
| 20260506044941 | 74 | 136 | 0.0 | 3.5 | 0.00 | 0.00 | 0.00 | 81 | 1011.5 |
| 20260506044832 | 74 | 136 | 0.0 | 3.5 | 0.00 | 0.00 | 0.00 | 81 | 1011.4 |
| 20260506044737 | 74 | 136 | 0.9 | 3.5 | 0.00 | 0.00 | 0.00 | 81 | 1011.5 |
| 20260506044702 | 74 | 136 | 0.0 | 3.5 | 0.00 | 0.00 | 0.00 | 81 | 1011.5 |
| 20260506044538 | 74 | 136 | 0.0 | 3.5 | 0.00 | 0.00 | 0.00 | 81 | 1011.5 |
| 20260506044444 | 74 | 136 | 0.0 | 3.5 | 0.00 | 0.00 | 0.00 | 81 | 1011.4 |
| 20260506044333 | 74 | 136 | 0.9 | 3.5 | 0.00 | 0.00 | 0.00 | 80 | 1011.4 |
| 20260506044306 | 74 | 136 | 0.9 | 3.5 | 0.00 | 0.00 | 0.00 | 80 | 1011.5 |
| 20260506043732 | 74 | 143 | 0.9 | 2.6 | 0.00 | 0.00 | 0.00 | 80 | 1011.4 |
| 20260506043643 | 74 | 143 | 0.9 | 2.6 | 0.00 | 0.00 | 0.00 | 80 | 1011.3 |
| 20260506043537 | 74 | 142 | 0.9 | 2.6 | 0.00 | 0.00 | 0.00 | 80 | 1011.3 |
| 20260506043450 | 74 | 143 | 0.9 | 3.5 | 0.00 | 0.00 | 0.00 | 80 | 1011.3 |
| 20260506043340 | 74 | 142 | 0.0 | 4.3 | 0.00 | 0.00 | 0.00 | 80 | 1011.3 |
| 20260506043237 | 74 | 142 | 0.0 | 4.3 | 0.00 | 0.00 | 0.00 | 80 | 1011.4 |
| 20260506043146 | 74 | 142 | 0.0 | 4.3 | 0.00 | 0.00 | 0.00 | 80 | 1011.4 |
| 20260506043108 | 74 | 141 | 0.9 | 4.3 | 0.00 | 0.00 | 0.00 | 80 | 1011.3 |
| 20260506042953 | 74 | 141 | 0.9 | 4.3 | 0.00 | 0.00 | 0.00 | 80 | 1011.3 |
| 20260506042839 | 74 | 141 | 0.0 | 4.3 | 0.00 | 0.00 | 0.00 | 80 | 1011.3 |
| 20260506042739 | 74 | 140 | 0.0 | 4.3 | 0.00 | 0.00 | 0.00 | 80 | 1011.3 |
| 20260506042650 | 74 | 140 | 0.9 | 4.3 | 0.00 | 0.00 | 0.00 | 80 | 1011.3 |
| 20260506042545 | 74 | 140 | 1.7 | 4.3 | 0.00 | 0.00 | 0.00 | 79 | 1011.3 |
| 20260506042440 | 74 | 142 | 0.9 | 4.3 | 0.00 | 0.00 | 0.00 | 79 | 1011.3 |
| 20260506042345 | 74 | 141 | 0.0 | 1.7 | 0.00 | 0.00 | 0.00 | 79 | 1011.4 |
| 20260506042240 | 74 | 141 | 0.0 | 1.7 | 0.00 | 0.00 | 0.00 | 79 | 1011.3 |
| 20260506042157 | 74 | 141 | 0.0 | 1.7 | 0.00 | 0.00 | 0.00 | 79 | 1011.3 |
| 20260506042031 | 74 | 141 | 0.0 | 1.7 | 0.00 | 0.00 | 0.00 | 79 | 1011.4 |
| 20260506041959 | 75 | 141 | 0.0 | 1.7 | 0.00 | 0.00 | 0.00 | 79 | 1011.4 |
| 20260506041832 | 75 | 141 | 0.0 | 2.6 | 0.00 | 0.00 | 0.00 | 79 | 1011.4 |
| 20260506041758 | 75 | 141 | 0.9 | 2.6 | 0.00 | 0.00 | 0.00 | 79 | 1011.4 |
| 20260506041700 | 75 | 141 | 0.9 | 2.6 | 0.00 | 0.00 | 0.00 | 79 | 1011.3 |
| 20260506041537 | 75 | 141 | 0.0 | 2.6 | 0.00 | 0.00 | 0.00 | 79 | 1011.3 |
| 20260506041512 | 75 | 140 | 0.0 | 2.6 | 0.00 | 0.00 | 0.00 | 79 | 1011.3 |
| 20260506041338 | 75 | 139 | 0.0 | 2.6 | 0.00 | 0.00 | 0.00 | 79 | 1011.3 |
| 20260506041234 | 75 | 139 | 0.0 | 2.6 | 0.00 | 0.00 | 0.00 | 79 | 1011.4 |
| 20260506041145 | 75 | 139 | 0.9 | 2.6 | 0.00 | 0.00 | 0.00 | 79 | 1011.3 |
| 20260506041041 | 75 | 139 | 0.9 | 2.6 | 0.00 | 0.00 | 0.00 | 79 | 1011.4 |
| 20260506040958 | 75 | 139 | 0.9 | 2.6 | 0.00 | 0.00 | 0.00 | 79 | 1011.4 |
| 20260506040905 | 75 | 136 | 0.9 | 2.6 | 0.00 | 0.00 | 0.00 | 79 | 1011.4 |
| 20260506040741 | 75 | 135 | 0.0 | 1.7 | 0.00 | 0.00 | 0.00 | 79 | 1011.4 |
| 20260506040712 | 75 | 138 | 0.0 | 1.7 | 0.00 | 0.00 | 0.00 | 79 | 1011.4 |
| 20260506040555 | 75 | 138 | 0.0 | 1.7 | 0.00 | 0.00 | 0.00 | 79 | 1011.4 |
| 20260506040432 | 75 | 138 | 0.0 | 1.7 | 0.00 | 0.00 | 0.00 | 79 | 1011.3 |
| 20260506040349 | 75 | 138 | 0.0 | 1.7 | 0.00 | 0.00 | 0.00 | 79 | 1011.3 |
| 20260506040234 | 75 | 138 | 0.0 | 2.6 | 0.00 | 0.00 | 0.00 | 79 | 1011.3 |
| 20260506040200 | 75 | 138 | 0.0 | 2.6 | 0.00 | 0.00 | 0.00 | 79 | 1011.3 |
| 20260506040035 | 75 | 138 | 0.0 | 2.6 | 0.00 | 0.00 | 0.00 | 79 | 1011.2 |
| 20260506035941 | 75 | 137 | 0.9 | 2.6 | 0.00 | 0.00 | 0.00 | 79 | 1011.3 |
| 20260506035831 | 75 | 137 | 0.9 | 2.6 | 0.00 | 0.00 | 0.00 | 79 | 1011.2 |
| 20260506035737 | 75 | 137 | 0.0 | 2.6 | 0.00 | 0.00 | 0.00 | 79 | 1011.3 |
| 20260506035720 | 75 | 137 | 0.0 | 2.6 | 0.00 | 0.00 | 0.00 | 79 | 1011.3 |
| 20260506035533 | 75 | 137 | 0.9 | 2.6 | 0.00 | 0.00 | 0.00 | 79 | 1011.2 |
| 20260506035446 | 75 | 137 | 0.9 | 2.6 | 0.00 | 0.00 | 0.00 | 79 | 1011.2 |
| 20260506035332 | 75 | 133 | 0.0 | 2.6 | 0.00 | 0.00 | 0.00 | 79 | 1011.2 |
| 20260506035231 | 75 | 133 | 0.0 | 2.6 | 0.00 | 0.00 | 0.00 | 78 | 1011.2 |
| 20260506035203 | 75 | 133 | 0.9 | 2.6 | 0.00 | 0.00 | 0.00 | 78 | 1011.1 |
| 20260506035036 | 75 | 129 | 0.9 | 2.6 | 0.00 | 0.00 | 0.00 | 78 | 1011.2 |
| 20260506035009 | 75 | 128 | 0.9 | 2.6 | 0.00 | 0.00 | 0.00 | 78 | 1011.2 |
| 20260506034835 | 75 | 126 | 0.9 | 2.6 | 0.00 | 0.00 | 0.00 | 78 | 1011.2 |
| 20260506034732 | 75 | 149 | 0.9 | 2.6 | 0.00 | 0.00 | 0.00 | 78 | 1011.2 |
| 20260506034648 | 75 | 149 | 0.9 | 2.6 | 0.00 | 0.00 | 0.00 | 78 | 1011.2 |
| 20260506034543 | 75 | 149 | 0.0 | 4.3 | 0.00 | 0.00 | 0.00 | 78 | 1011.2 |
| 20260506034449 | 75 | 149 | 0.0 | 4.3 | 0.00 | 0.00 | 0.00 | 78 | 1011.2 |
| 20260506034334 | 75 | 149 | 0.0 | 4.3 | 0.00 | 0.00 | 0.00 | 78 | 1011.2 |
| 20260506034247 | 75 | 149 | 0.9 | 4.3 | 0.00 | 0.00 | 0.00 | 78 | 1011.2 |
| 20260506034231 | 75 | 149 | 0.9 | 4.3 | 0.00 | 0.00 | 0.00 | 78 | 1011.2 |
| 20260506034104 | 75 | 149 | 0.9 | 4.3 | 0.00 | 0.00 | 0.00 | 78 | 1011.1 |
| 20260506033933 | 75 | 150 | 0.0 | 4.3 | 0.00 | 0.00 | 0.00 | 78 | 1011.1 |
| 20260506033906 | 75 | 150 | 0.9 | 4.3 | 0.00 | 0.00 | 0.00 | 78 | 1011.1 |
| 20260506033741 | 75 | 152 | 0.9 | 4.3 | 0.00 | 0.00 | 0.00 | 78 | 1011.1 |
| 20260506033655 | 75 | 152 | 0.9 | 4.3 | 0.00 | 0.00 | 0.00 | 78 | 1011.1 |
| 20260506033549 | 75 | 148 | 0.9 | 2.6 | 0.00 | 0.00 | 0.00 | 78 | 1011.2 |
| 20260506033439 | 75 | 148 | 0.9 | 2.6 | 0.00 | 0.00 | 0.00 | 78 | 1011.1 |
| 20260506033345 | 75 | 148 | 0.9 | 2.6 | 0.00 | 0.00 | 0.00 | 78 | 1011.1 |
| 20260506033231 | 75 | 149 | 0.0 | 2.6 | 0.00 | 0.00 | 0.00 | 78 | 1011.1 |
| 20260506033156 | 75 | 147 | 0.0 | 2.6 | 0.00 | 0.00 | 0.00 | 78 | 1011.1 |
| 20260506033051 | 75 | 147 | 0.0 | 2.6 | 0.00 | 0.00 | 0.00 | 78 | 1011.0 |
| 20260506032937 | 75 | 146 | 0.9 | 2.6 | 0.00 | 0.00 | 0.00 | 78 | 1011.1 |
| 20260506032853 | 75 | 146 | 0.9 | 2.6 | 0.00 | 0.00 | 0.00 | 78 | 1011.1 |
| 20260506032738 | 75 | 146 | 0.9 | 3.5 | 0.00 | 0.00 | 0.00 | 78 | 1011.1 |
| 20260506032701 | 75 | 145 | 0.9 | 3.5 | 0.00 | 0.00 | 0.00 | 78 | 1011.0 |
| 20260506032535 | 75 | 146 | 0.9 | 3.5 | 0.00 | 0.00 | 0.00 | 78 | 1011.0 |
| 20260506032447 | 75 | 119 | 0.9 | 3.5 | 0.00 | 0.00 | 0.00 | 78 | 1011.0 |
| 20260506032334 | 75 | 119 | 0.9 | 3.5 | 0.00 | 0.00 | 0.00 | 78 | 1011.0 |
| 20260506032233 | 75 | 117 | 0.9 | 3.5 | 0.00 | 0.00 | 0.00 | 78 | 1011.0 |
| 20260506032205 | 75 | 117 | 0.9 | 3.5 | 0.00 | 0.00 | 0.00 | 78 | 1010.9 |
| 20260506032040 | 75 | 117 | 0.0 | 3.5 | 0.00 | 0.00 | 0.00 | 78 | 1010.9 |
| 20260506031946 | 75 | 116 | 0.9 | 3.5 | 0.00 | 0.00 | 0.00 | 78 | 1010.9 |
| 20260506031833 | 75 | 116 | 0.9 | 4.3 | 0.00 | 0.00 | 0.00 | 78 | 1010.9 |
| 20260506031734 | 75 | 159 | 0.9 | 4.3 | 0.00 | 0.00 | 0.00 | 78 | 1010.9 |
| 20260506031645 | 75 | 158 | 0.0 | 4.3 | 0.00 | 0.00 | 0.00 | 78 | 1010.8 |
| 20260506031607 | 75 | 160 | 0.9 | 4.3 | 0.00 | 0.00 | 0.00 | 78 | 1010.9 |
| 20260506031432 | 75 | 162 | 0.9 | 4.3 | 0.00 | 0.00 | 0.00 | 78 | 1010.9 |
| 20260506031338 | 75 | 163 | 0.0 | 3.5 | 0.00 | 0.00 | 0.00 | 78 | 1010.9 |
| 20260506031234 | 76 | 163 | 0.9 | 6.1 | 0.00 | 0.00 | 0.00 | 78 | 1010.9 |
| 20260506031150 | 75 | 163 | 0.9 | 6.1 | 0.00 | 0.00 | 0.00 | 78 | 1010.9 |
| 20260506031044 | 76 | 132 | 0.0 | 6.1 | 0.00 | 0.00 | 0.00 | 78 | 1010.9 |
| 20260506030957 | 76 | 132 | 0.9 | 6.1 | 0.00 | 0.00 | 0.00 | 78 | 1010.9 |
| 20260506030844 | 76 | 132 | 1.7 | 6.1 | 0.00 | 0.00 | 0.00 | 78 | 1010.8 |
| 20260506030740 | 76 | 132 | 0.9 | 6.1 | 0.00 | 0.00 | 0.00 | 78 | 1010.8 |
| 20260506030652 | 76 | 132 | 1.7 | 6.1 | 0.00 | 0.00 | 0.00 | 78 | 1010.9 |
| 20260506030532 | 76 | 132 | 1.7 | 6.1 | 0.00 | 0.00 | 0.00 | 78 | 1010.8 |
| 20260506030439 | 76 | 130 | 0.9 | 6.1 | 0.00 | 0.00 | 0.00 | 78 | 1010.8 |
| 20260506030345 | 76 | 130 | 0.9 | 3.5 | 0.00 | 0.00 | 0.00 | 78 | 1010.8 |
| 20260506030241 | 76 | 130 | 0.9 | 3.5 | 0.00 | 0.00 | 0.00 | 78 | 1010.8 |
| 20260506030155 | 76 | 130 | 0.0 | 3.5 | 0.00 | 0.00 | 0.00 | 78 | 1010.7 |
| 20260506030034 | 76 | 130 | 0.0 | 3.5 | 0.00 | 0.00 | 0.00 | 78 | 1010.7 |
| 20260506025947 | 76 | 130 | 0.0 | 3.5 | 0.00 | 0.00 | 0.00 | 77 | 1010.7 |
| 20260506025833 | 76 | 129 | 0.9 | 3.5 | 0.00 | 0.00 | 0.00 | 77 | 1010.7 |
| 20260506025731 | 76 | 129 | 0.9 | 3.5 | 0.00 | 0.00 | 0.00 | 77 | 1010.7 |
| 20260506025704 | 76 | 129 | 0.9 | 3.5 | 0.00 | 0.00 | 0.00 | 77 | 1010.6 |
| 20260506025543 | 76 | 128 | 0.9 | 2.6 | 0.00 | 0.00 | 0.00 | 77 | 1010.6 |
| 20260506025450 | 76 | 123 | 0.9 | 2.6 | 0.00 | 0.00 | 0.00 | 77 | 1010.6 |
| 20260506025359 | 76 | 124 | 0.0 | 1.7 | 0.00 | 0.00 | 0.00 | 77 | 1010.6 |
| 20260506025305 | 76 | 124 | 0.0 | 1.7 | 0.00 | 0.00 | 0.00 | 77 | 1010.6 |
| 20260506025213 | 76 | 124 | 0.9 | 2.6 | 0.00 | 0.00 | 0.00 | 77 | 1010.6 |
| 20260506025047 | 76 | 124 | 0.0 | 2.6 | 0.00 | 0.00 | 0.00 | 77 | 1010.5 |
| 20260506024934 | 76 | 124 | 0.0 | 2.6 | 0.00 | 0.00 | 0.00 | 77 | 1010.5 |
| 20260506024852 | 76 | 124 | 0.0 | 2.6 | 0.00 | 0.00 | 0.00 | 77 | 1010.5 |
| 20260506024730 | 76 | 124 | 0.0 | 2.6 | 0.00 | 0.00 | 0.00 | 77 | 1010.5 |
| 20260506024642 | 76 | 124 | 0.0 | 2.6 | 0.00 | 0.00 | 0.00 | 77 | 1010.5 |
| 20260506024537 | 76 | 124 | 0.0 | 2.6 | 0.00 | 0.00 | 0.00 | 77 | 1010.5 |
| 20260506024443 | 76 | 124 | 0.9 | 4.3 | 0.00 | 0.00 | 0.00 | 77 | 1010.5 |
| 20260506024356 | 76 | 124 | 0.9 | 4.3 | 0.00 | 0.00 | 0.00 | 77 | 1010.5 |
| 20260506024236 | 76 | 124 | 1.7 | 4.3 | 0.00 | 0.00 | 0.00 | 77 | 1010.5 |
| 20260506024208 | 76 | 124 | 0.9 | 4.3 | 0.00 | 0.00 | 0.00 | 77 | 1010.5 |
| 20260506024044 | 76 | 123 | 0.0 | 4.3 | 0.00 | 0.00 | 0.00 | 77 | 1010.6 |
| 20260506024009 | 76 | 122 | 0.0 | 4.3 | 0.00 | 0.00 | 0.00 | 77 | 1010.5 |
| 20260506023834 | 76 | 122 | 0.9 | 4.3 | 0.00 | 0.00 | 0.00 | 77 | 1010.5 |
| 20260506023735 | 76 | 121 | 0.9 | 4.3 | 0.00 | 0.00 | 0.00 | 77 | 1010.5 |
| 20260506023646 | 76 | 121 | 0.9 | 4.3 | 0.00 | 0.00 | 0.00 | 77 | 1010.5 |
| 20260506023609 | 76 | 148 | 0.9 | 4.3 | 0.00 | 0.00 | 0.00 | 77 | 1010.5 |
| 20260506023437 | 76 | 148 | 0.9 | 3.5 | 0.00 | 0.00 | 0.00 | 77 | 1010.6 |
| 20260506023344 | 76 | 148 | 0.9 | 2.6 | 0.00 | 0.00 | 0.00 | 77 | 1010.5 |
| 20260506023256 | 76 | 148 | 0.9 | 2.6 | 0.00 | 0.00 | 0.00 | 76 | 1010.5 |
| 20260506023154 | 76 | 148 | 0.9 | 2.6 | 0.00 | 0.00 | 0.00 | 76 | 1010.5 |
| 20260506023032 | 77 | 148 | 0.9 | 2.6 | 0.00 | 0.00 | 0.00 | 76 | 1010.5 |
| 20260506022944 | 77 | 148 | 0.9 | 2.6 | 0.00 | 0.00 | 0.00 | 76 | 1010.5 |
| 20260506022831 | 77 | 148 | 0.0 | 2.6 | 0.00 | 0.00 | 0.00 | 76 | 1010.6 |
| 20260506022736 | 77 | 149 | 0.9 | 2.6 | 0.00 | 0.00 | 0.00 | 76 | 1010.5 |
| 20260506022701 | 77 | 148 | 0.9 | 2.6 | 0.00 | 0.00 | 0.00 | 76 | 1010.6 |
| 20260506022540 | 77 | 148 | 0.9 | 2.6 | 0.00 | 0.00 | 0.00 | 76 | 1010.6 |
| 20260506022446 | 77 | 148 | 0.0 | 1.7 | 0.00 | 0.00 | 0.00 | 76 | 1010.6 |
| 20260506022358 | 77 | 147 | 0.9 | 2.6 | 0.00 | 0.00 | 0.00 | 76 | 1010.7 |
| 20260506022232 | 77 | 147 | 0.9 | 2.6 | 0.00 | 0.00 | 0.00 | 76 | 1010.7 |
| 20260506022204 | 77 | 146 | 0.9 | 2.6 | 0.00 | 0.00 | 0.00 | 76 | 1010.6 |
| 20260506022040 | 77 | 147 | 0.0 | 2.6 | 0.00 | 0.00 | 0.00 | 76 | 1010.6 |
| 20260506022009 | 77 | 147 | 0.0 | 2.6 | 0.00 | 0.00 | 0.00 | 76 | 1010.6 |
| 20260506021902 | 77 | 147 | 0.0 | 3.5 | 0.00 | 0.00 | 0.00 | 76 | 1010.6 |
| 20260506021736 | 77 | 147 | 0.9 | 3.5 | 0.00 | 0.00 | 0.00 | 76 | 1010.6 |
| 20260506021708 | 77 | 147 | 0.9 | 3.5 | 0.00 | 0.00 | 0.00 | 76 | 1010.7 |
| 20260506021543 | 77 | 146 | 0.9 | 3.5 | 0.00 | 0.00 | 0.00 | 76 | 1010.7 |
| 20260506021449 | 77 | 146 | 0.9 | 3.5 | 0.00 | 0.00 | 0.00 | 76 | 1010.7 |
| 20260506021340 | 77 | 146 | 0.9 | 3.5 | 0.00 | 0.00 | 0.00 | 75 | 1010.7 |
| 20260506021236 | 77 | 146 | 0.0 | 4.3 | 0.00 | 0.00 | 0.00 | 75 | 1010.7 |
| 20260506021146 | 77 | 146 | 0.9 | 4.3 | 0.00 | 0.00 | 0.00 | 75 | 1010.7 |
| 20260506021046 | 77 | 146 | 0.9 | 4.3 | 0.00 | 0.00 | 0.00 | 75 | 1010.7 |
| 20260506020932 | 77 | 146 | 0.9 | 4.3 | 0.00 | 0.00 | 0.00 | 75 | 1010.7 |
| 20260506020900 | 77 | 148 | 0.0 | 4.3 | 0.00 | 0.00 | 0.00 | 75 | 1010.7 |
| 20260506020756 | 77 | 148 | 0.0 | 4.3 | 0.00 | 0.00 | 0.00 | 75 | 1010.6 |
| 20260506020652 | 77 | 148 | 0.0 | 4.3 | 0.00 | 0.00 | 0.00 | 75 | 1010.6 |
| 20260506020535 | 77 | 145 | 0.0 | 4.3 | 0.00 | 0.00 | 0.00 | 75 | 1010.7 |
| 20260506020441 | 77 | 145 | 0.9 | 4.3 | 0.00 | 0.00 | 0.00 | 75 | 1010.6 |
| 20260506020348 | 77 | 145 | 0.9 | 4.3 | 0.00 | 0.00 | 0.00 | 75 | 1010.6 |
| 20260506020234 | 77 | 150 | 0.0 | 2.6 | 0.00 | 0.00 | 0.00 | 75 | 1010.6 |
| 20260506020201 | 77 | 150 | 0.0 | 2.6 | 0.00 | 0.00 | 0.00 | 75 | 1010.6 |
| 20260506020035 | 77 | 150 | 0.9 | 2.6 | 0.00 | 0.00 | 0.00 | 75 | 1010.6 |
| 20260506015941 | 77 | 151 | 0.0 | 2.6 | 0.00 | 0.00 | 0.00 | 75 | 1010.6 |
| 20260506015853 | 77 | 151 | 0.0 | 4.3 | 0.00 | 0.00 | 0.00 | 75 | 1010.6 |
| 20260506015800 | 77 | 151 | 0.0 | 4.3 | 0.00 | 0.00 | 0.00 | 75 | 1010.6 |
| 20260506015645 | 77 | 151 | 0.0 | 4.3 | 0.00 | 0.00 | 0.00 | 75 | 1010.5 |
| 20260506015540 | 77 | 151 | 0.9 | 4.3 | 0.00 | 0.00 | 0.00 | 75 | 1010.5 |
| 20260506015446 | 77 | 151 | 0.9 | 4.3 | 0.00 | 0.00 | 0.00 | 75 | 1010.5 |
| 20260506015333 | 77 | 151 | 0.9 | 4.3 | 0.00 | 0.00 | 0.00 | 75 | 1010.5 |
| 20260506015246 | 77 | 129 | 0.9 | 4.3 | 0.00 | 0.00 | 0.00 | 75 | 1010.5 |
| 20260506015230 | 77 | 129 | 0.9 | 4.3 | 0.00 | 0.00 | 0.00 | 75 | 1010.5 |
| 20260506015103 | 77 | 139 | 0.9 | 4.3 | 0.00 | 0.00 | 0.00 | 75 | 1010.5 |
| 20260506014952 | 77 | 136 | 0.9 | 4.3 | 0.00 | 0.00 | 0.00 | 74 | 1010.5 |
| 20260506014844 | 77 | 136 | 0.0 | 4.3 | 0.00 | 0.00 | 0.00 | 74 | 1010.5 |
| 20260506014732 | 77 | 132 | 0.9 | 4.3 | 0.00 | 0.00 | 0.00 | 74 | 1010.5 |
| 20260506014647 | 77 | 132 | 0.9 | 4.3 | 0.00 | 0.00 | 0.00 | 74 | 1010.4 |
| 20260506014609 | 77 | 132 | 1.7 | 4.3 | 0.00 | 0.00 | 0.00 | 74 | 1010.5 |
| 20260506014434 | 78 | 123 | 1.7 | 6.1 | 0.00 | 0.00 | 0.00 | 74 | 1010.5 |
| 20260506014345 | 78 | 121 | 1.7 | 6.1 | 0.00 | 0.00 | 0.00 | 74 | 1010.5 |
| 20260506014231 | 78 | 181 | 1.7 | 6.1 | 0.00 | 0.00 | 0.00 | 74 | 1010.5 |
| 20260506014154 | 78 | 116 | 0.9 | 6.1 | 0.00 | 0.00 | 0.00 | 74 | 1010.5 |
| 20260506014049 | 78 | 136 | 1.7 | 6.1 | 0.00 | 0.00 | 0.00 | 74 | 1010.5 |
| 20260506013935 | 78 | 138 | 0.9 | 6.1 | 0.00 | 0.00 | 0.00 | 74 | 1010.5 |
| 20260506013854 | 78 | 130 | 0.9 | 6.1 | 0.00 | 0.00 | 0.00 | 74 | 1010.5 |
| 20260506013801 | 78 | 128 | 1.7 | 6.1 | 0.00 | 0.00 | 0.00 | 74 | 1010.5 |
| 20260506013723 | 78 | 128 | 1.7 | 6.1 | 0.00 | 0.00 | 0.00 | 74 | 1010.4 |
| 20260506013606 | 78 | 117 | 0.9 | 6.1 | 0.00 | 0.00 | 0.00 | 74 | 1010.4 |
| 20260506013450 | 78 | 99 | 0.9 | 5.2 | 0.00 | 0.00 | 0.00 | 74 | 1010.4 |
| 20260506013338 | 78 | 150 | 0.9 | 5.2 | 0.00 | 0.00 | 0.00 | 74 | 1010.3 |
| 20260506013256 | 78 | 168 | 0.0 | 4.3 | 0.00 | 0.00 | 0.00 | 74 | 1010.3 |
| 20260506013152 | 78 | 168 | 0.0 | 4.3 | 0.00 | 0.00 | 0.00 | 74 | 1010.3 |
| 20260506013055 | 78 | 168 | 0.0 | 4.3 | 0.00 | 0.00 | 0.00 | 74 | 1010.3 |
| 20260506012941 | 78 | 168 | 0.9 | 6.1 | 0.00 | 0.00 | 0.00 | 74 | 1010.3 |
| 20260506012848 | 78 | 168 | 0.9 | 6.1 | 0.00 | 0.00 | 0.00 | 73 | 1010.3 |
| 20260506012733 | 78 | 167 | 0.9 | 6.1 | 0.00 | 0.00 | 0.00 | 73 | 1010.3 |
| 20260506012701 | 78 | 272 | 0.9 | 6.1 | 0.00 | 0.00 | 0.00 | 73 | 1010.2 |
| 20260506012536 | 78 | 159 | 1.7 | 6.1 | 0.00 | 0.00 | 0.00 | 73 | 1010.2 |
| 20260506012442 | 78 | 159 | 1.7 | 6.1 | 0.00 | 0.00 | 0.00 | 73 | 1010.1 |
| 20260506012416 | 78 | 128 | 0.9 | 6.1 | 0.00 | 0.00 | 0.00 | 73 | 1010.1 |
| 20260506012239 | 78 | 127 | 0.9 | 6.1 | 0.00 | 0.00 | 0.00 | 73 | 1010.1 |
| 20260506012224 | 78 | 127 | 0.9 | 6.1 | 0.00 | 0.00 | 0.00 | 73 | 1010.1 |
| 20260506012041 | 78 | 149 | 0.9 | 4.3 | 0.00 | 0.00 | 0.00 | 73 | 1010.1 |
| 20260506011948 | 78 | 149 | 1.7 | 4.3 | 0.00 | 0.00 | 0.00 | 73 | 1010.0 |
| 20260506011835 | 78 | 180 | 0.9 | 5.2 | 0.00 | 0.00 | 0.00 | 73 | 1010.0 |
| 20260506011730 | 78 | 155 | 0.9 | 5.2 | 0.00 | 0.00 | 0.00 | 73 | 1010.0 |
| 20260506011642 | 78 | 151 | 0.9 | 5.2 | 0.00 | 0.00 | 0.00 | 73 | 1010.0 |
| 20260506011536 | 78 | 153 | 0.9 | 5.2 | 0.00 | 0.00 | 0.00 | 73 | 1010.0 |
| 20260506011453 | 78 | 151 | 0.9 | 5.2 | 0.00 | 0.00 | 0.00 | 73 | 1010.1 |
| 20260506011339 | 78 | 150 | 1.7 | 5.2 | 0.00 | 0.00 | 0.00 | 73 | 1010.1 |
| 20260506011236 | 78 | 159 | 0.9 | 4.3 | 0.00 | 0.00 | 0.00 | 73 | 1010.1 |
| 20260506011208 | 78 | 159 | 0.9 | 4.3 | 0.00 | 0.00 | 0.00 | 73 | 1010.1 |
| 20260506011043 | 78 | 155 | 0.9 | 4.3 | 0.00 | 0.00 | 0.00 | 73 | 1010.1 |
| 20260506010955 | 78 | 155 | 0.9 | 4.3 | 0.00 | 0.00 | 0.00 | 73 | 1010.1 |
| 20260506010846 | 78 | 156 | 1.7 | 4.3 | 0.00 | 0.00 | 0.00 | 72 | 1010.1 |
| 20260506010752 | 78 | 157 | 1.7 | 4.3 | 0.00 | 0.00 | 0.00 | 72 | 1010.0 |
| 20260506010654 | 78 | 163 | 1.7 | 4.3 | 0.00 | 0.00 | 0.00 | 72 | 1010.0 |
| 20260506010609 | 79 | 165 | 0.9 | 4.3 | 0.00 | 0.00 | 0.00 | 72 | 1009.9 |
| 20260506010432 | 78 | 167 | 1.7 | 6.1 | 0.00 | 0.00 | 0.00 | 72 | 1010.0 |
| 20260506010406 | 79 | 167 | 1.7 | 6.1 | 0.00 | 0.00 | 0.00 | 72 | 1010.0 |
| 20260506010235 | 79 | 171 | 1.7 | 6.1 | 0.00 | 0.00 | 0.00 | 72 | 1009.9 |
| 20260506010220 | 79 | 171 | 2.6 | 6.1 | 0.00 | 0.00 | 0.00 | 72 | 1010.0 |
| 20260506010034 | 79 | 128 | 1.7 | 6.1 | 0.00 | 0.00 | 0.00 | 72 | 1010.0 |
| 20260506005940 | 79 | 156 | 1.7 | 6.1 | 0.00 | 0.00 | 0.00 | 72 | 1009.9 |
| 20260506005853 | 79 | 155 | 0.9 | 6.1 | 0.00 | 0.00 | 0.00 | 72 | 1009.9 |
| 20260506005738 | 79 | 134 | 1.7 | 6.1 | 0.00 | 0.00 | 0.00 | 72 | 1009.9 |
| 20260506005705 | 79 | 133 | 1.7 | 6.1 | 0.00 | 0.00 | 0.00 | 71 | 1009.9 |
| 20260506005540 | 79 | 133 | 0.9 | 4.3 | 0.00 | 0.00 | 0.00 | 71 | 1009.9 |
| 20260506005445 | 79 | 130 | 1.7 | 3.5 | 0.00 | 0.00 | 0.00 | 71 | 1009.8 |
| 20260506005331 | 79 | 130 | 0.9 | 3.5 | 0.00 | 0.00 | 0.00 | 71 | 1009.8 |
| 20260506005243 | 79 | 148 | 0.9 | 2.6 | 0.00 | 0.00 | 0.00 | 71 | 1009.8 |
| 20260506005200 | 79 | 148 | 0.9 | 2.6 | 0.00 | 0.00 | 0.00 | 71 | 1009.9 |
| 20260506005038 | 79 | 148 | 0.9 | 3.5 | 0.00 | 0.00 | 0.00 | 71 | 1009.9 |
| 20260506004949 | 79 | 147 | 1.7 | 3.5 | 0.00 | 0.00 | 0.00 | 71 | 1009.9 |
| 20260506004835 | 79 | 144 | 0.9 | 6.1 | 0.00 | 0.00 | 0.00 | 71 | 1009.9 |
| 20260506004731 | 79 | 145 | 0.9 | 7.0 | 0.00 | 0.00 | 0.00 | 71 | 1009.9 |
| 20260506004642 | 79 | 145 | 0.9 | 7.0 | 0.00 | 0.00 | 0.00 | 71 | 1009.9 |
| 20260506004605 | 79 | 142 | 0.9 | 7.0 | 0.00 | 0.00 | 0.00 | 71 | 1009.9 |
| 20260506004434 | 79 | 142 | 0.9 | 7.0 | 0.00 | 0.00 | 0.00 | 71 | 1009.9 |
| 20260506004400 | 79 | 142 | 1.7 | 7.0 | 0.00 | 0.00 | 0.00 | 71 | 1009.9 |
| 20260506004236 | 79 | 144 | 1.7 | 7.0 | 0.00 | 0.00 | 0.00 | 71 | 1009.9 |
| 20260506004147 | 79 | 143 | 2.6 | 7.0 | 0.00 | 0.00 | 0.00 | 70 | 1009.9 |
| 20260506004111 | 79 | 96 | 2.6 | 7.0 | 0.00 | 0.00 | 0.00 | 70 | 1009.9 |
| 20260506003936 | 79 | 144 | 1.7 | 7.0 | 0.00 | 0.00 | 0.00 | 70 | 1010.0 |
| 20260506003847 | 79 | 128 | 1.7 | 7.0 | 0.00 | 0.00 | 0.00 | 70 | 1009.9 |
| 20260506003732 | 79 | 155 | 1.7 | 7.0 | 0.00 | 0.00 | 0.00 | 70 | 1009.9 |
| 20260506003655 | 79 | 130 | 0.9 | 7.0 | 0.00 | 0.00 | 0.00 | 70 | 1009.9 |